GFSNW_sfc_wetblb_114.txt.gz
Wetbulb
51.46 52.91 52.95 53.85 52.76 51.09 47.75 41.17 33.67 42.69 45.14 33.84 27.63 23.29 29.46 37.79 35.98 37.05 36.53 34.58 31.66 29.25 31.77 27.38 13.72 15.59 20.28 32.81 33.15 26.85 28.57 24.24 16.78 24.58 30.77 32.32 32.20 31.04 30.84 18.75 19.10 23.83 17.34 26.11
52.57 53.42 54.09 52.19 50.98 50.93 43.56 35.92 36.79 43.52 43.33 23.15 22.59 29.86 31.80 34.05 35.51 36.12 35.03 33.25 33.69 36.64 32.66 27.17 24.70 25.15 30.60 33.60 31.95 29.20 30.55 20.94 11.47 18.30 23.81 28.54 28.73 29.88 31.37 28.46 23.71 24.19 17.25 24.51
54.24 53.31 51.89 51.08 51.13 50.46 41.59 34.05 29.65 36.53 39.73 35.13 26.69 27.48 28.72 29.03 35.91 36.33 36.24 32.85 34.93 33.73 31.45 32.07 28.14 26.68 30.56 33.20 32.61 37.04 31.01 22.67 19.97 16.02 21.77 27.09 26.67 28.70 30.17 26.90 23.56 19.29 26.74 28.75
54.53 52.87 51.49 51.27 51.74 49.83 40.91 32.88 28.49 32.71 30.15 31.89 27.21 27.33 28.71 28.84 29.22 32.51 36.00 31.27 32.92 33.04 29.31 31.02 30.77 30.73 28.03 30.50 33.15 30.04 26.59 19.35 22.40 24.71 26.17 26.58 27.59 28.73 30.13 29.18 29.83 21.34 27.00 31.53
53.91 52.33 51.41 50.77 51.54 48.37 37.27 32.58 29.47 28.46 26.69 28.04 26.32 27.53 26.30 28.49 27.95 29.67 29.58 29.62 32.36 34.26 28.28 29.87 29.93 30.92 30.03 29.44 28.78 20.69 25.12 18.53 24.34 25.50 27.90 28.12 29.22 31.45 30.98 31.86 32.51 31.71 31.93 32.00
51.77 50.56 50.02 50.72 50.80 45.52 35.96 33.36 32.38 30.98 27.11 24.57 25.37 24.03 25.57 28.23 29.20 29.78 31.22 31.37 29.45 31.63 32.68 34.52 34.99 35.94 36.55 35.51 28.27 23.23 23.20 21.83 23.26 17.07 27.33 27.33 25.14 29.85 30.07 31.86 33.26 32.50 27.73 31.32
50.67 50.52 50.64 49.50 50.88 43.74 37.47 34.05 31.24 28.53 24.81 25.53 25.83 26.56 27.09 27.24 27.92 28.00 29.08 31.63 29.94 31.69 36.59 36.78 37.20 37.76 36.70 32.44 29.44 30.62 30.66 29.05 26.96 20.95 23.18 14.64 32.05 33.64 33.71 32.63 33.91 34.33 34.05 34.95
51.14 50.86 50.96 50.04 48.09 45.32 37.90 35.22 31.69 27.52 22.96 24.85 25.55 25.76 25.50 26.10 26.42 26.50 28.56 30.87 31.57 33.44 33.11 32.49 29.75 29.74 31.73 32.20 33.81 32.99 33.60 30.78 26.07 18.67 23.02 26.95 29.85 34.63 31.47 28.28 30.81 35.27 35.30 36.76
51.19 49.68 49.51 50.41 49.42 47.56 38.61 36.46 34.50 29.64 25.46 23.86 26.72 24.78 24.05 22.46 21.13 24.37 28.44 32.00 32.60 33.25 32.46 32.42 25.49 20.47 25.28 25.01 30.24 35.15 33.85 33.40 27.47 23.26 18.81 16.88 28.77 35.31 34.76 33.86 26.34 38.59 36.53 36.65
50.39 50.34 49.39 47.73 47.14 47.30 39.70 37.09 36.14 31.30 26.10 26.58 24.83 23.83 24.64 25.80 24.31 23.14 25.83 28.16 30.55 32.32 28.40 26.08 22.82 21.45 24.76 22.07 22.50 26.39 28.73 28.20 26.00 26.39 22.13 23.90 31.67 34.98 36.22 23.65 25.25 37.68 36.56 36.28
49.16 49.18 47.81 47.46 46.71 46.99 40.30 36.20 36.89 32.30 27.62 27.89 29.71 30.36 26.33 26.39 25.64 24.02 26.36 29.18 29.82 29.01 25.47 24.91 24.54 23.10 23.50 21.84 22.80 21.94 23.61 21.65 23.86 23.42 21.17 18.36 33.39 33.69 31.84 33.82 38.65 37.91 37.58 36.90
49.86 48.64 47.88 47.79 48.02 46.99 42.34 33.69 37.79 36.28 30.44 29.20 31.93 32.14 32.43 31.67 30.04 28.40 27.77 27.04 26.74 29.40 27.10 26.11 25.76 25.18 22.90 21.48 19.51 24.96 23.21 25.73 24.29 25.05 24.59 31.55 33.39 34.90 38.59 39.65 39.66 40.28 37.00 38.22
49.70 48.93 48.21 48.39 48.85 46.87 42.21 35.39 35.54 33.95 28.93 28.52 28.84 28.35 32.78 35.11 34.09 34.23 29.28 28.66 31.13 29.60 29.54 27.46 26.92 25.10 25.11 21.46 23.50 21.01 25.40 28.14 26.54 28.08 30.11 29.92 36.57 38.26 40.33 40.94 40.62 41.06 41.24 42.33
50.07 48.94 48.61 48.96 47.85 46.06 41.98 37.26 37.47 33.50 30.00 25.39 27.22 34.71 31.66 34.34 34.91 34.31 33.46 32.50 32.20 31.47 30.11 28.31 26.95 27.07 28.75 24.51 26.22 24.93 27.32 28.10 28.01 27.69 28.91 34.52 38.01 37.10 36.54 41.40 41.79 41.72 41.72 41.38
49.34 48.29 47.94 48.43 47.97 45.75 39.98 39.16 38.37 37.24 32.53 26.82 27.29 30.91 32.57 34.07 33.25 32.62 32.80 31.82 29.25 27.89 28.05 27.18 26.50 28.62 28.47 28.25 26.82 24.42 29.80 28.49 26.87 26.52 30.64 31.12 33.03 32.23 36.23 40.03 40.72 41.30 40.81 39.81
48.83 48.08 47.92 48.83 48.13 44.69 36.68 32.86 37.06 39.77 36.46 29.16 25.14 30.05 32.27 32.32 32.40 31.79 30.80 29.90 27.95 27.11 27.05 26.21 26.78 29.68 29.42 24.39 23.84 29.39 30.80 31.56 32.21 30.79 31.99 33.18 33.60 34.04 36.97 38.54 39.48 40.01 39.72 40.57
49.45 48.81 48.06 48.57 46.99 39.40 33.84 32.05 36.49 41.41 36.56 29.69 25.81 26.88 32.68 34.20 32.77 31.47 30.21 29.67 27.71 27.11 26.05 25.90 25.60 27.39 30.65 26.27 22.22 29.66 31.57 32.60 31.10 30.08 31.28 31.98 34.03 34.13 37.02 38.16 38.96 39.10 38.64 38.64
49.73 48.08 47.65 46.05 45.12 41.96 35.11 37.44 41.95 39.34 32.88 30.18 21.30 24.25 28.31 33.34 29.39 27.01 30.75 27.53 27.88 27.80 26.57 26.86 26.23 28.30 28.01 24.60 27.28 28.44 30.68 30.96 30.50 30.29 30.76 31.23 31.68 32.89 35.27 37.79 38.11 37.24 36.85 37.06
48.34 46.72 44.91 41.55 38.51 35.00 35.20 42.29 40.69 36.35 32.36 24.62 24.27 20.69 20.25 31.49 28.55 28.08 28.61 28.48 22.90 28.98 25.22 25.84 27.49 25.99 23.32 27.72 26.99 28.79 29.47 29.43 29.69 30.55 29.44 30.76 31.77 32.28 32.79 33.05 33.23 33.99 34.42 35.26
44.98 40.87 36.16 31.88 35.85 42.13 41.21 35.39 29.20 28.10 28.71 28.47 24.16 26.28 24.56 30.02 27.90 26.01 23.39 26.46 21.85 14.92 24.90 28.21 25.51 24.92 28.25 28.27 28.42 29.82 30.25 31.17 31.38 29.40 28.16 28.76 28.30 29.94 30.01 30.00 31.89 33.00 33.73 34.04
38.13 32.55 32.64 38.42 41.68 37.29 33.94 27.91 23.09 24.61 23.58 26.90 25.35 24.48 24.80 28.48 21.69 20.81 25.96 18.81 19.15 13.91 22.09 21.08 19.52 22.08 23.95 27.18 27.25 28.67 30.02 30.85 30.62 30.15 29.79 29.84 29.91 29.72 29.63 30.07 31.47 32.78 33.41 33.41
37.48 37.32 38.79 37.44 34.13 31.09 28.29 22.36 23.36 21.86 21.65 24.38 23.30 24.39 26.57 26.95 28.41 22.35 21.67 17.88 16.68 12.04 25.54 20.01 14.90 22.26 24.42 26.15 26.75 27.18 28.40 29.31 28.95 28.23 27.77 27.42 29.21 28.82 29.11 29.30 29.63 30.65 32.18 32.56
39.21 34.39 31.37 31.35 29.71 23.70 19.84 15.23 15.17 13.49 23.59 25.17 25.81 24.24 26.50 27.02 27.47 22.62 17.28 11.33 14.43 25.99 24.90 21.53 21.44 23.25 25.50 25.85 26.80 26.56 26.68 27.88 27.77 25.62 26.10 26.03 27.35 27.56 27.58 27.04 28.22 29.06 29.75 30.60
32.10 29.85 25.94 27.38 24.36 23.09 20.49 19.88 23.21 25.70 27.30 26.92 26.73 24.16 24.38 26.39 21.88 22.05 14.75 21.17 21.64 22.12 11.85 15.14 18.43 23.85 25.70 25.58 26.30 26.04 25.57 25.18 23.91 24.23 24.38 23.99 23.46 23.72 24.72 26.07 26.24 26.66 27.79 29.44
30.27 30.18 25.63 24.99 25.82 22.10 21.72 24.91 26.14 26.97 30.05 26.38 23.75 21.39 22.62 15.45 19.13 22.16 22.67 20.86 17.12 17.39 16.37 19.31 18.95 25.12 25.30 23.78 24.08 22.37 22.12 18.88 15.46 14.60 14.15 16.32 17.55 19.16 20.12 22.98 24.03 26.31 28.76 28.49
30.22 26.75 19.34 25.14 21.80 26.28 27.61 24.65 26.72 28.86 28.30 25.80 23.36 17.62 14.75 15.87 17.58 15.71 15.22 13.41 11.41 16.44 18.74 18.24 18.23 22.65 21.04 21.13 24.25 23.90 22.86 21.45 20.38 21.47 19.98 22.35 22.29 21.87 20.92 21.05 27.11 27.41 26.71 25.67
25.91 22.91 24.68 24.52 19.39 23.50 27.80 28.98 28.72 31.71 28.21 21.04 20.29 17.45 17.26 16.58 10.06 11.13 12.92 12.77 16.07 17.85 19.40 19.06 19.15 21.34 19.84 16.72 17.95 19.23 20.02 18.67 17.32 19.67 21.70 21.45 22.74 20.25 20.45 20.37 22.01 22.63 26.59 23.07

GFSNW_sfc_wetblb_117.txt.gz
Wetbulb
53.97 53.17 52.87 51.10 51.88 51.56 47.31 41.56 33.93 43.50 45.50 33.87 29.91 22.51 29.28 37.22 36.70 36.91 35.59 33.70 30.67 30.06 30.36 18.39 13.15 14.54 19.93 31.77 32.42 27.45 29.47 25.51 19.08 25.26 31.04 31.97 32.18 30.40 30.93 20.53 22.01 23.61 23.17 26.43
53.87 53.02 51.61 51.57 51.80 49.59 43.59 37.23 37.59 44.31 43.99 26.63 24.88 29.25 31.16 34.18 35.58 35.38 35.59 32.24 33.40 36.33 30.99 22.05 24.93 25.02 30.66 33.05 31.26 28.89 30.71 21.91 14.94 19.91 27.46 30.59 27.93 31.01 30.99 29.12 26.46 24.28 22.60 27.81
52.33 52.11 51.71 51.72 50.26 48.49 41.25 35.52 31.82 37.45 39.94 34.71 26.43 26.94 28.47 29.29 36.62 36.20 35.57 32.19 33.93 34.26 31.38 29.99 25.70 27.20 30.81 32.73 32.07 36.67 30.51 23.58 21.12 18.49 23.79 26.97 26.76 30.43 32.00 28.42 25.46 27.09 27.87 30.59
52.32 51.61 51.71 50.90 50.29 48.45 40.39 33.09 28.42 31.45 30.98 32.10 27.88 26.97 28.60 28.93 29.05 32.28 35.92 31.05 31.51 33.40 28.86 29.94 29.10 28.78 27.76 30.33 33.07 29.48 26.11 22.26 24.38 26.29 27.20 27.00 29.99 29.74 31.53 30.40 29.56 28.57 30.33 31.01
51.10 50.73 50.77 51.21 49.96 49.04 36.72 31.55 29.20 28.08 26.54 28.66 26.39 26.80 26.23 28.71 28.10 29.16 29.12 29.17 31.58 32.01 28.19 29.56 29.07 31.19 28.21 29.31 28.18 20.83 25.56 20.54 25.55 25.60 29.08 28.85 29.05 30.20 30.33 31.23 32.39 32.60 31.91 31.66
51.18 50.54 50.57 51.44 49.41 44.81 36.48 33.17 31.69 30.40 27.06 25.54 24.06 23.80 26.01 28.72 29.17 29.71 30.92 30.53 30.16 29.75 32.20 34.96 35.39 36.84 35.78 32.03 27.60 24.24 24.26 23.13 23.73 19.15 27.37 27.63 24.14 29.62 29.82 32.14 33.69 32.75 28.93 33.37
50.30 50.12 49.82 50.12 47.72 43.26 37.54 33.59 30.97 28.07 24.59 26.45 26.17 26.12 27.01 27.71 27.68 28.05 29.14 31.50 29.63 31.61 37.24 37.51 38.13 37.54 34.47 31.60 30.53 30.33 28.37 27.12 26.92 18.87 21.92 15.91 31.58 34.08 33.78 32.72 34.47 34.18 34.59 35.62
50.60 50.37 49.62 50.16 48.05 45.97 38.01 34.88 31.24 27.63 23.37 25.35 25.17 25.40 25.55 25.28 26.00 26.40 28.98 30.04 31.05 32.86 33.59 32.73 29.80 30.30 31.68 32.21 34.24 33.66 33.28 28.72 24.85 21.92 23.42 27.34 29.53 34.06 32.54 30.28 31.92 36.12 35.39 36.37
51.21 50.73 50.33 48.89 49.37 46.13 38.84 35.91 33.05 29.41 26.09 23.64 26.15 24.43 23.29 22.36 20.78 24.30 28.58 31.53 32.07 32.86 32.74 32.25 24.97 19.89 25.01 25.01 29.91 35.15 34.65 33.52 26.08 23.99 18.82 16.70 30.25 35.36 35.91 34.53 27.36 38.25 36.74 36.27
50.09 49.32 50.02 48.72 49.08 47.61 40.07 36.58 34.46 30.88 26.08 26.34 24.35 23.39 23.80 24.88 23.39 23.26 25.48 27.91 30.30 32.16 28.65 26.32 22.69 21.27 25.01 21.96 22.35 26.22 28.66 27.06 26.00 26.87 22.18 24.35 30.99 35.21 37.38 25.06 26.95 38.10 37.00 36.63
50.63 50.30 48.75 47.77 47.68 47.06 40.20 35.13 35.71 32.15 27.89 27.67 28.86 29.30 25.66 25.44 24.99 23.74 26.09 29.10 29.71 28.95 25.79 25.01 24.44 22.90 23.52 21.82 23.27 22.49 23.39 22.61 24.26 23.68 21.16 18.03 33.52 34.60 32.24 35.11 39.03 39.55 39.39 37.95
49.34 49.44 48.18 48.29 48.16 46.83 40.91 33.29 37.03 35.59 30.64 29.11 31.42 31.42 31.85 30.25 29.02 27.69 27.25 27.45 26.78 29.69 26.92 25.77 25.43 24.79 21.88 21.48 19.38 24.42 23.05 25.70 24.15 25.12 24.86 31.01 33.95 35.22 39.78 39.77 40.09 39.87 39.21 39.71
47.97 49.72 48.69 48.48 48.76 47.10 41.13 35.04 35.00 33.19 29.20 28.27 28.78 27.76 32.07 34.58 33.53 33.84 29.44 28.33 30.61 29.41 28.99 27.06 26.43 24.82 24.87 21.27 22.93 21.45 25.65 27.90 26.59 28.36 30.32 31.44 36.61 38.71 40.47 41.08 41.14 41.17 41.38 42.05
49.05 49.66 49.44 48.23 49.02 46.57 41.67 36.00 36.50 32.87 29.52 25.17 26.47 34.07 30.26 34.16 34.00 34.02 32.99 32.01 31.57 30.86 29.38 28.11 26.99 26.94 27.79 23.94 25.32 24.98 27.11 28.11 27.25 26.95 29.47 33.45 37.95 35.75 36.17 40.58 41.91 41.31 41.43 41.44
50.25 50.44 48.87 49.23 48.52 46.46 40.37 38.32 37.33 35.97 32.04 26.89 26.93 30.24 32.65 32.91 32.49 32.41 32.65 31.62 29.28 27.95 27.89 27.15 26.61 28.17 27.80 26.59 25.95 23.74 28.18 27.86 26.85 26.37 31.06 31.74 32.40 34.12 35.91 37.64 38.75 41.01 40.95 40.17
47.73 49.32 49.30 49.44 48.78 44.58 37.51 31.97 36.76 39.17 35.31 28.36 24.36 30.10 31.16 30.71 31.46 31.33 30.21 29.53 27.86 27.21 27.27 26.29 26.53 28.45 28.66 24.48 23.34 28.28 29.45 30.45 31.42 31.18 32.31 33.44 34.14 33.98 35.90 38.10 39.48 40.09 39.61 40.01
47.37 48.94 48.25 48.74 47.77 38.99 32.35 32.33 36.13 39.76 35.82 28.58 26.07 26.68 32.17 32.23 32.04 30.92 29.36 28.93 27.83 26.99 25.93 25.93 25.22 26.79 29.67 25.78 21.74 28.02 30.91 32.00 31.13 31.06 33.46 32.22 34.33 33.84 34.50 36.16 38.32 39.51 38.92 38.77
47.08 49.18 48.25 48.43 45.29 42.29 34.79 38.07 43.04 38.27 32.16 29.67 19.78 23.89 26.90 31.70 27.50 26.73 29.85 27.58 27.71 27.55 26.16 26.20 25.61 27.49 27.03 24.15 27.00 26.63 30.04 30.51 30.01 30.90 31.07 31.99 32.06 32.09 33.38 35.23 35.80 36.93 36.50 36.36
47.14 48.80 45.72 42.17 39.26 35.07 35.14 42.49 41.06 36.57 32.51 25.10 23.92 19.48 18.82 30.33 27.76 28.42 28.74 28.25 23.14 28.57 24.91 25.37 27.40 25.91 23.44 27.30 26.27 28.07 28.49 30.00 30.66 30.25 30.23 31.29 31.99 31.98 31.78 31.80 31.70 31.08 31.72 33.00
47.03 41.81 37.30 31.58 36.29 42.20 42.63 35.85 29.03 28.19 28.70 28.06 25.14 26.54 23.27 27.64 26.33 25.21 23.91 26.03 21.83 13.99 24.67 27.55 25.51 24.43 27.53 27.70 27.97 29.52 29.85 30.39 30.55 29.13 27.94 29.00 28.72 29.71 29.48 29.41 30.98 31.42 31.30 31.55
38.60 33.03 32.45 38.44 42.47 37.80 34.04 29.12 23.57 24.77 23.88 27.11 25.04 24.18 24.11 28.03 21.89 22.79 26.34 19.11 20.44 16.54 21.61 20.84 18.45 20.28 23.77 26.74 26.99 28.11 29.88 30.60 30.39 30.75 30.69 30.87 30.53 29.24 28.74 28.53 29.39 30.09 30.45 30.16
37.72 37.47 39.19 38.13 33.91 31.22 28.45 24.36 22.97 21.42 21.31 23.80 22.81 24.33 26.17 26.55 27.94 23.79 23.34 18.55 17.62 12.63 25.01 21.36 15.40 22.07 23.86 25.90 26.33 26.89 28.39 29.02 29.52 29.59 28.88 28.30 29.29 27.59 28.00 27.67 27.21 27.46 29.11 29.67
38.89 34.34 31.37 30.92 30.15 25.22 21.07 15.48 13.07 11.26 22.59 23.74 25.36 24.96 26.55 27.04 27.15 23.07 18.16 12.98 15.99 26.27 23.56 20.73 20.78 22.74 24.84 25.19 26.12 25.98 26.80 27.56 27.52 26.56 26.40 25.39 25.95 25.29 25.30 24.94 25.86 26.49 26.24 27.52
33.08 30.02 25.29 26.91 23.53 24.06 20.76 18.69 19.47 23.62 24.11 26.70 28.48 25.77 24.76 26.37 22.02 21.80 15.65 21.39 22.88 22.04 17.36 16.01 18.21 23.03 25.36 25.16 26.02 25.69 25.63 25.86 24.50 24.61 24.36 23.71 23.18 23.22 22.84 24.53 24.07 23.88 24.40 26.83
30.75 30.66 25.89 26.21 25.92 21.63 18.15 20.72 22.37 25.40 30.24 26.94 24.76 22.47 22.85 19.47 17.02 21.66 20.41 19.20 18.13 19.08 17.36 20.82 18.86 24.27 25.81 24.55 24.67 23.26 22.31 19.12 14.82 14.20 14.37 16.22 16.27 17.46 18.19 21.82 22.73 23.66 24.77 25.47
30.92 29.78 25.83 23.22 21.56 25.69 26.60 19.23 21.93 27.95 29.79 26.33 23.53 17.77 14.87 13.52 18.30 16.16 15.89 14.58 13.67 18.60 20.51 19.71 20.45 25.19 23.59 23.68 23.45 23.01 21.96 20.27 19.77 20.31 18.51 21.42 21.24 20.39 18.97 19.62 18.95 19.41 20.47 19.66
28.18 23.63 25.07 24.04 19.67 23.80 26.26 26.70 27.62 31.37 27.88 23.05 19.17 14.89 15.20 16.99 9.84 12.59 16.32 16.49 19.68 19.54 19.28 19.44 22.13 24.89 21.62 20.08 19.93 20.07 20.04 18.75 18.39 19.71 21.93 21.57 23.96 20.13 19.32 17.30 19.96 23.12 24.35 21.45

GFSNW_sfc_wetblb_120.txt.gz
Wetbulb
53.04 52.47 52.31 52.27 52.08 51.30 47.74 43.05 35.33 44.55 47.40 36.24 35.47 33.62 33.22 37.34 37.51 40.24 38.07 36.99 34.51 32.12 31.26 26.99 25.22 25.73 28.63 34.53 34.97 30.49 33.48 29.68 26.39 29.29 33.97 33.43 33.43 31.85 32.24 29.32 26.79 28.58 29.90 27.96
52.48 52.31 52.44 52.17 50.76 49.79 46.15 38.46 38.81 45.78 45.31 31.14 32.53 34.61 34.83 35.97 36.37 36.95 36.32 34.49 36.35 37.29 32.32 27.34 29.10 29.38 34.29 35.74 33.81 32.04 33.88 29.49 25.84 28.35 32.55 34.81 31.79 33.84 33.11 30.98 31.08 28.76 27.92 28.90
51.96 52.30 51.53 50.60 49.66 48.32 45.71 40.29 33.66 38.67 41.32 37.26 34.02 33.35 32.95 32.81 38.31 37.17 37.57 35.73 37.31 34.92 32.34 33.31 29.02 30.19 33.80 35.45 35.16 36.08 33.84 30.93 27.74 24.22 25.84 29.47 30.32 32.63 35.38 33.85 30.05 29.34 29.60 31.48
52.35 50.99 50.78 50.55 50.87 47.98 44.01 38.65 34.65 36.59 32.43 33.69 35.00 33.77 33.74 32.26 31.60 36.71 37.93 34.91 34.94 33.99 30.36 31.72 30.56 32.30 33.26 34.26 34.41 33.58 32.27 29.11 30.69 30.84 31.31 31.68 32.38 32.13 33.53 31.42 32.85 29.62 30.80 30.86
51.57 50.95 51.56 51.11 50.03 46.92 40.25 36.24 35.14 35.44 33.78 34.66 34.10 31.59 32.80 32.41 32.53 33.44 33.30 33.07 35.01 35.45 32.15 32.71 30.60 32.98 32.49 31.39 34.68 30.34 33.12 29.84 30.88 29.51 32.97 32.73 31.21 32.70 33.94 33.61 33.81 33.05 33.58 32.20
50.88 50.67 51.57 49.76 48.88 46.74 40.27 37.77 37.74 38.44 31.71 33.12 32.25 32.58 32.86 33.52 34.66 34.22 34.74 35.66 35.23 33.89 34.25 37.43 38.42 38.86 36.72 35.44 33.07 32.35 32.08 31.56 30.53 26.67 31.94 31.48 28.67 31.91 33.45 34.26 34.97 34.59 32.05 35.40
50.99 50.34 50.46 49.68 48.05 44.63 41.52 38.60 38.15 36.46 29.74 33.92 32.43 31.18 32.16 32.82 32.99 33.16 34.13 36.61 35.61 36.64 39.36 40.41 40.10 38.16 36.30 35.92 35.63 35.93 32.90 32.35 32.48 29.50 30.66 22.59 31.60 37.85 36.34 35.59 36.61 37.44 37.63 38.96
50.35 49.71 49.37 49.34 47.75 45.63 41.07 39.13 37.91 36.45 31.44 32.86 30.41 31.06 31.62 32.64 32.92 32.46 33.63 34.76 36.13 38.39 38.00 33.85 30.52 32.21 33.13 33.69 35.63 35.97 36.59 33.84 30.42 27.99 26.43 29.44 32.55 35.24 34.45 33.10 34.40 38.33 38.49 39.82
50.83 49.65 49.35 49.02 48.31 44.53 42.21 39.46 37.69 37.74 33.72 30.79 32.01 31.27 31.75 32.10 32.07 32.37 33.13 36.78 38.40 39.60 36.42 33.28 27.11 26.94 28.51 28.48 31.17 36.99 36.16 36.39 32.66 28.97 23.89 21.64 32.38 37.42 39.42 38.61 30.20 39.17 40.28 39.71
51.08 50.68 49.86 48.73 49.37 47.47 43.55 39.83 38.34 37.96 31.99 32.09 31.36 31.59 31.66 32.39 31.94 32.87 33.15 35.09 35.90 38.33 35.94 32.03 30.02 29.28 31.15 27.90 27.16 28.65 31.17 31.90 29.27 30.13 27.26 30.05 35.65 38.32 39.32 29.45 31.53 39.12 40.83 40.72
49.75 49.99 49.63 48.52 47.90 48.14 43.35 38.84 39.30 37.99 33.36 32.39 33.30 33.26 31.51 31.25 33.00 32.14 33.31 34.99 35.17 35.35 32.60 31.96 31.89 30.30 31.94 30.16 30.89 30.34 29.75 29.15 28.96 29.46 27.16 24.24 38.42 37.96 33.99 38.33 40.69 40.66 40.64 41.71
48.45 50.73 49.93 48.62 47.75 48.83 42.42 38.84 39.40 39.09 35.78 33.36 35.44 35.75 36.32 35.28 34.67 34.60 33.54 34.03 34.46 38.40 35.52 33.65 33.61 31.00 30.71 30.35 29.19 32.56 29.40 32.85 32.26 32.17 32.34 37.01 40.17 40.15 41.95 42.17 41.54 40.97 41.71 42.45
49.32 48.30 50.15 49.06 48.66 48.76 43.37 38.92 39.35 37.92 33.98 33.14 33.30 33.08 35.93 37.52 37.42 37.95 35.78 35.75 35.99 35.48 36.50 36.38 34.82 30.79 33.47 30.13 30.75 31.39 33.44 34.21 33.38 32.48 35.58 37.77 40.16 42.31 43.33 43.12 42.79 43.06 43.04 43.36
49.24 48.95 50.27 49.75 48.77 48.42 42.90 39.52 40.34 37.69 34.82 30.45 30.91 36.71 35.09 37.69 37.12 37.12 37.13 36.54 36.39 36.91 37.12 36.51 35.37 32.71 33.96 32.59 31.60 32.24 35.55 34.23 34.01 33.73 35.38 37.95 40.14 41.41 42.00 42.77 43.18 43.02 43.11 43.09
49.01 49.07 50.96 49.86 49.01 46.72 41.54 40.87 40.53 39.76 35.23 30.64 30.27 33.93 36.37 35.92 36.16 36.08 36.48 36.45 36.14 36.62 35.10 34.94 34.20 35.61 34.09 34.20 32.84 31.84 34.97 35.15 33.52 34.39 38.95 39.22 39.58 41.14 41.10 41.37 41.49 42.36 42.14 41.92
48.26 49.89 49.74 49.23 48.15 43.45 39.03 35.77 41.24 41.51 40.00 33.73 27.96 33.97 34.21 34.92 35.26 34.58 34.09 34.67 34.76 35.54 35.89 34.96 34.54 33.91 34.84 31.88 30.65 36.11 36.32 37.05 38.44 37.93 39.79 39.15 40.42 40.59 41.15 41.07 41.37 41.83 41.70 41.49
48.39 49.25 49.42 49.36 46.33 41.89 36.75 35.95 39.70 41.33 40.05 33.81 28.21 28.75 34.23 35.52 35.12 34.70 34.06 33.67 33.93 34.44 33.76 32.27 33.38 33.52 35.41 32.87 29.75 35.39 35.80 37.59 37.28 39.05 39.39 37.41 38.96 39.04 39.45 39.69 40.46 40.74 40.95 40.73
47.94 48.47 49.31 48.77 45.54 43.24 39.78 40.83 43.21 40.43 36.30 33.97 27.48 27.12 29.61 35.20 31.26 30.53 34.07 32.25 32.91 32.52 32.37 31.74 31.45 32.57 33.33 29.34 34.48 33.37 35.99 36.99 36.74 37.76 37.55 38.83 39.43 38.38 38.16 39.38 39.07 38.89 38.41 37.83
48.03 47.40 47.77 43.14 40.11 36.99 38.68 42.99 42.41 40.03 36.11 31.32 28.57 24.88 24.15 33.18 31.21 32.26 32.29 32.78 28.60 32.66 29.93 30.27 31.46 30.96 28.14 32.86 33.47 33.35 35.14 35.69 36.06 35.83 36.01 36.47 37.00 36.71 36.25 36.32 35.56 35.39 35.79 36.04
47.63 43.30 38.46 32.78 37.53 42.93 43.04 38.66 35.11 34.79 35.20 32.80 28.87 30.01 26.49 31.11 29.91 29.20 29.64 30.52 29.12 26.11 29.74 31.53 28.84 29.08 33.98 33.96 34.66 35.73 36.43 37.41 36.38 33.88 32.58 33.98 34.36 34.97 34.76 34.95 35.33 34.97 34.56 34.27
40.08 35.17 34.15 39.13 43.18 38.47 35.36 31.61 29.61 31.29 28.58 31.15 29.75 29.66 26.73 31.42 27.57 28.01 30.19 27.03 27.78 23.30 27.50 27.33 27.27 27.03 30.92 33.27 33.36 34.62 37.04 36.38 37.23 36.63 36.86 36.80 36.65 34.91 33.95 33.09 32.87 32.91 32.55 31.97
38.86 38.23 39.76 38.87 34.80 32.65 29.80 28.36 28.27 26.56 27.27 28.21 27.15 27.64 30.64 29.81 32.11 28.66 27.08 25.61 24.31 22.29 29.31 25.73 23.31 29.80 30.41 31.12 32.15 33.18 35.59 35.42 34.54 35.37 34.33 33.94 33.30 33.03 32.12 31.37 30.56 30.14 30.63 30.94
39.46 35.37 31.88 31.59 31.49 26.50 25.04 22.61 22.74 22.32 26.73 27.82 27.96 27.21 28.55 28.83 30.22 27.84 24.92 22.29 22.05 28.54 25.11 24.09 28.11 29.43 29.42 30.88 31.68 32.36 34.20 34.40 33.36 31.94 32.21 31.63 30.64 29.78 29.04 28.44 28.68 28.83 29.14 30.24
33.54 30.56 26.07 27.61 26.46 27.93 28.62 28.03 28.17 29.48 28.68 28.09 30.31 27.81 28.56 29.44 27.03 26.30 22.76 25.21 26.25 22.32 21.07 22.77 29.91 29.34 30.07 31.06 32.42 31.47 31.09 31.64 30.89 29.91 29.14 28.58 27.98 27.60 27.23 27.98 28.12 27.84 27.73 28.61
31.28 31.43 27.11 27.32 30.90 28.66 28.55 28.10 28.43 29.18 31.37 30.21 28.03 27.42 27.90 25.72 23.67 25.23 23.03 20.21 20.21 22.28 23.76 29.18 29.52 29.96 30.00 30.03 30.62 30.88 29.81 27.07 25.02 24.92 24.92 25.14 24.90 25.54 25.55 26.62 27.00 27.25 28.00 28.21
32.36 31.58 29.19 27.45 28.39 26.96 26.47 26.03 27.81 31.64 31.46 30.02 29.42 25.32 23.06 23.78 24.11 21.14 20.57 20.43 19.85 26.09 28.00 30.17 28.50 29.36 30.12 30.25 30.19 29.83 28.22 26.38 25.44 25.87 25.61 25.83 25.44 25.36 25.65 25.64 25.96 25.95 26.03 25.84
30.60 29.00 29.94 29.82 28.88 30.74 29.41 28.69 30.09 33.01 29.69 27.49 25.50 22.51 25.12 22.16 20.39 20.29 23.47 22.25 29.49 29.08 26.63 26.90 30.50 29.72 29.45 28.50 26.81 25.64 24.91 25.27 25.99 26.04 26.39 26.49 26.71 25.90 25.11 24.88 26.57 27.67 27.51 25.07

GFSNW_sfc_wetblb_123.txt.gz
Wetbulb
54.25 53.17 52.16 52.52 51.31 50.96 48.84 44.99 35.41 47.33 49.91 37.97 39.28 35.42 35.72 37.84 38.34 41.21 38.57 38.13 35.81 33.53 32.65 28.20 27.97 28.99 31.22 36.20 36.12 30.41 34.76 29.91 26.64 30.65 35.66 36.60 34.42 34.20 33.73 29.35 28.16 31.06 29.46 26.90
52.39 52.50 53.12 53.09 52.64 50.84 48.63 39.24 39.39 47.92 46.94 33.68 35.45 37.18 36.45 37.90 37.34 37.87 36.63 35.67 37.35 37.96 33.70 29.87 30.99 31.50 35.66 36.77 35.08 32.95 34.98 31.93 27.44 29.98 33.37 36.17 33.58 35.83 36.35 34.49 33.69 28.98 27.39 27.52
51.73 52.21 52.35 51.86 50.90 49.56 49.06 42.75 34.75 41.22 43.72 40.98 37.12 35.27 34.49 33.85 39.65 38.19 38.53 37.09 38.49 36.03 33.83 35.06 31.43 31.99 35.34 36.87 36.51 36.49 35.36 33.92 30.14 25.48 27.87 32.09 31.40 33.59 35.04 33.72 30.11 29.38 29.26 30.77
51.16 51.80 51.94 51.21 50.58 48.98 46.90 43.19 37.82 39.61 34.05 36.21 37.27 37.19 35.75 33.51 33.07 37.91 39.11 36.21 36.27 35.35 31.95 33.49 32.49 34.37 34.79 35.94 37.00 35.80 34.96 30.71 33.21 33.21 34.17 34.60 33.61 33.32 33.74 32.13 34.09 30.20 31.72 32.41
51.17 50.89 52.24 51.74 50.93 48.59 44.91 40.28 38.31 40.26 37.32 37.43 37.03 33.80 34.52 33.85 34.38 35.54 34.63 34.73 36.10 36.92 33.29 34.02 31.76 34.24 34.51 33.03 36.38 34.53 36.48 31.72 32.93 31.10 34.52 34.28 32.24 33.71 34.55 33.91 33.63 34.06 34.85 33.66
51.55 51.19 51.38 51.17 50.53 48.38 43.94 42.61 42.87 42.07 35.43 36.93 36.05 35.18 35.60 35.32 36.74 36.62 37.55 37.39 36.69 35.16 35.80 38.75 39.44 39.51 38.44 37.52 35.28 34.92 34.68 33.46 32.44 28.92 33.86 32.98 29.35 32.40 32.62 33.75 35.83 34.71 32.70 35.84
51.13 50.68 51.10 50.63 49.84 46.65 44.36 41.62 41.66 39.45 33.83 36.58 36.03 34.72 36.03 35.71 36.12 35.32 37.04 38.72 37.16 38.60 42.08 42.39 41.74 40.09 38.80 38.67 37.83 38.42 34.95 34.69 34.05 30.58 33.23 24.40 32.66 38.65 37.39 35.32 36.10 37.54 38.26 39.84
50.76 49.98 49.88 48.95 48.45 46.82 43.92 42.55 40.04 39.60 35.88 38.05 33.96 34.27 35.22 35.94 36.31 35.75 36.61 37.42 39.17 41.85 40.12 35.53 33.04 34.69 34.88 35.81 37.22 37.36 38.46 35.92 32.40 29.51 28.87 30.81 33.46 36.23 35.46 34.01 34.01 39.47 39.39 40.82
50.37 49.83 49.34 49.61 49.80 48.13 46.64 42.33 41.83 40.22 38.03 35.63 37.52 34.96 36.35 35.07 35.76 35.17 35.94 39.08 41.63 41.56 37.05 33.67 29.32 29.02 30.84 31.11 33.34 37.99 37.61 37.84 34.07 31.46 26.41 24.13 34.02 38.48 40.92 40.09 29.92 40.11 41.24 40.67
50.55 50.10 49.92 48.80 48.66 46.62 46.44 43.70 41.81 40.43 36.46 36.26 35.68 35.09 34.45 37.85 37.20 37.03 36.58 37.09 37.53 40.89 35.38 32.07 31.88 31.55 33.56 29.84 29.39 31.04 33.23 34.05 31.32 31.62 29.13 31.65 37.35 39.81 41.13 30.52 32.11 40.56 41.74 41.94
49.08 49.61 49.81 49.11 47.92 47.70 47.17 43.41 42.39 39.27 37.22 36.52 35.42 35.82 34.79 34.97 36.93 35.07 37.05 36.66 37.30 36.99 33.47 33.90 34.50 32.22 34.29 31.95 33.98 32.55 31.46 31.23 31.86 31.76 28.96 26.42 40.30 39.45 34.69 39.36 41.84 41.72 41.52 42.65
49.19 48.96 50.67 49.83 48.05 48.03 45.91 42.28 42.31 41.95 38.36 36.42 37.62 38.24 38.56 37.16 36.92 38.09 38.17 37.32 37.47 40.55 37.18 37.13 36.62 33.12 34.40 33.02 30.94 35.79 30.87 34.94 33.69 33.77 33.75 39.48 41.76 41.53 43.56 43.96 42.61 42.11 42.71 42.79
48.12 49.43 49.41 50.17 49.15 48.85 44.72 40.99 41.30 41.97 37.63 36.28 35.90 35.52 38.59 40.06 39.82 40.63 37.55 39.43 39.56 38.76 40.11 38.93 37.67 32.77 36.45 31.78 32.99 34.28 36.46 37.70 34.47 34.23 37.67 38.95 41.63 43.33 44.27 44.43 43.85 44.30 43.90 44.37
48.02 49.06 49.60 49.26 49.89 48.17 44.07 41.73 41.82 41.12 38.26 32.33 33.78 39.01 36.78 40.06 39.82 39.35 39.74 38.78 39.38 39.97 40.00 38.59 37.28 34.36 37.28 34.97 34.35 34.09 37.88 36.81 36.08 35.94 37.73 39.92 41.81 43.08 43.77 43.92 44.26 43.99 44.31 44.31
47.71 48.77 48.92 51.29 49.96 48.27 44.05 43.42 43.03 43.05 38.18 33.41 34.15 36.29 38.53 38.45 38.46 38.22 38.89 38.61 38.62 38.96 37.39 36.74 35.73 38.56 36.11 37.25 35.20 33.64 37.84 36.91 34.66 35.63 40.74 40.46 41.29 43.19 44.00 43.17 43.05 43.85 43.31 42.88
47.45 48.85 50.61 50.10 48.90 45.63 42.25 37.83 42.84 43.00 43.16 36.37 31.21 36.57 35.50 36.56 37.28 36.93 36.85 38.10 37.94 38.59 37.97 37.72 38.58 37.28 36.58 33.55 32.44 39.02 40.61 41.38 42.42 39.91 42.26 42.78 43.43 43.78 43.71 42.98 42.98 43.23 42.87 42.74
47.34 48.32 49.65 49.23 46.95 43.67 38.85 38.23 41.97 43.31 43.04 36.15 32.18 31.44 35.72 36.63 36.51 36.67 36.18 36.29 37.11 36.67 37.18 34.97 36.29 35.74 36.03 34.82 31.31 38.51 39.56 40.41 40.64 42.08 41.19 39.20 40.97 40.22 42.65 42.85 42.60 42.04 42.31 42.05
47.14 47.85 49.52 48.35 46.19 43.87 40.54 44.18 44.03 42.89 39.10 36.70 32.04 30.69 30.97 36.55 32.80 32.38 36.83 34.65 35.19 35.05 34.83 34.07 32.88 35.09 35.08 30.99 36.26 38.53 38.92 39.78 39.76 40.89 41.70 42.59 42.68 42.37 41.01 41.89 41.55 40.70 40.31 39.88
47.36 47.73 47.05 43.99 40.98 37.60 39.45 44.25 42.48 43.21 39.04 33.75 31.50 29.18 27.89 35.16 33.59 34.76 34.29 35.32 30.61 34.84 30.83 31.64 33.40 32.03 29.53 34.07 35.98 37.87 37.40 37.60 38.21 40.69 39.50 40.22 39.54 39.70 39.39 39.57 38.56 38.40 38.33 38.10
47.30 45.30 40.37 35.01 38.26 43.30 43.35 38.89 36.66 36.25 37.30 36.23 31.51 33.97 28.43 32.72 31.86 31.35 32.51 33.20 31.20 28.10 31.48 33.72 29.32 30.18 36.13 37.93 38.89 39.72 39.01 39.75 40.31 36.11 34.91 37.00 37.46 37.58 37.50 37.49 38.40 37.49 36.58 35.04
41.59 37.90 36.57 39.35 43.57 39.55 36.36 33.61 32.16 33.48 30.85 33.91 33.81 32.72 27.72 32.64 29.50 30.34 32.92 30.48 31.37 25.42 30.11 28.34 29.40 28.94 33.70 37.75 38.12 38.45 40.26 40.78 39.83 40.63 40.16 39.58 39.29 37.89 37.20 36.42 35.88 34.36 33.49 32.28
40.92 38.88 40.43 39.59 35.74 32.82 30.66 29.97 31.86 30.26 29.03 33.26 29.68 30.11 33.16 30.89 34.54 31.95 29.68 28.06 26.97 23.67 31.06 27.30 24.98 32.76 36.08 34.94 36.81 37.40 39.97 39.74 39.63 39.71 38.94 38.42 38.24 37.94 36.19 34.02 32.90 31.94 31.66 31.65
40.49 36.12 32.35 32.69 32.64 27.54 26.57 24.68 27.70 28.11 32.14 31.48 30.32 27.82 29.86 29.87 32.11 31.19 28.60 24.45 23.63 30.79 25.83 25.39 29.45 33.50 32.50 34.32 35.21 37.02 39.17 38.95 37.66 36.77 36.35 34.92 33.39 33.35 32.54 30.89 30.75 30.58 30.47 31.29
34.38 30.91 28.11 28.72 28.47 29.30 31.60 32.31 34.25 34.74 33.85 31.33 32.25 29.26 29.71 30.54 27.28 28.75 24.17 28.32 27.73 23.38 22.39 24.41 32.69 34.82 32.39 33.98 35.39 36.04 35.36 35.41 34.36 33.07 32.47 31.46 30.11 29.45 29.64 29.99 30.26 29.78 29.37 29.45
32.16 31.57 28.41 29.21 33.79 34.55 34.88 35.61 32.77 32.35 34.85 33.43 30.68 29.77 30.31 27.79 27.25 27.12 26.34 22.28 21.06 24.36 25.56 30.37 34.05 33.44 32.85 32.90 33.81 34.41 33.63 31.75 30.30 29.60 28.42 28.17 28.33 28.28 28.22 28.75 28.79 28.68 28.64 28.82
32.47 31.84 31.25 32.09 32.44 31.85 29.92 31.78 32.08 34.37 34.40 34.42 34.06 28.02 25.97 26.05 27.07 23.29 21.89 22.51 22.22 29.90 31.88 34.16 32.14 31.75 32.13 32.60 33.86 33.45 32.22 30.14 28.51 28.21 27.73 27.20 26.96 27.13 27.89 27.59 27.40 27.35 27.36 26.65
31.33 31.25 34.45 34.56 34.38 34.59 32.74 32.72 32.98 35.75 32.38 30.91 29.88 24.93 26.92 26.39 24.22 22.83 28.46 26.30 33.67 35.66 31.71 30.02 32.21 31.78 31.83 32.39 31.73 29.61 28.79 27.73 28.08 28.35 28.72 28.75 28.66 27.66 26.60 25.85 26.94 27.76 28.07 25.05

GFSNW_sfc_wetblb_126.txt.gz
Wetbulb
52.73 52.82 52.31 51.98 51.64 52.11 49.88 43.06 35.65 47.53 49.44 36.94 38.24 33.78 36.27 38.52 38.65 41.77 38.43 38.26 35.89 33.32 32.51 27.42 24.97 25.08 27.52 36.04 34.81 29.90 34.39 27.77 24.15 28.89 35.67 37.65 35.36 34.32 34.29 26.16 25.86 29.25 27.87 26.25
52.62 51.90 51.80 51.40 51.15 51.12 46.07 39.55 39.79 47.49 46.57 34.31 33.28 36.58 36.34 38.53 37.85 37.42 36.80 35.89 37.53 37.48 33.42 27.91 29.39 30.22 35.58 36.17 34.01 30.51 32.28 27.46 23.38 25.60 30.71 34.84 33.71 34.38 34.63 34.69 33.58 27.04 22.96 26.80
52.61 52.86 52.29 52.01 51.43 49.95 46.02 40.70 33.96 39.96 42.06 39.60 35.72 34.20 34.19 33.69 39.64 38.10 38.71 37.17 38.36 35.86 33.66 34.16 30.22 30.88 35.29 36.55 35.99 37.38 33.87 29.50 27.45 23.74 28.46 33.57 30.88 33.03 34.29 33.06 27.44 28.35 28.78 30.73
51.39 52.32 52.40 51.79 51.56 50.30 45.74 41.01 37.28 38.73 33.13 34.14 35.85 36.36 35.23 33.46 33.28 37.97 39.07 36.33 36.44 34.78 31.04 32.69 31.62 33.53 33.11 35.37 37.02 34.44 32.31 26.67 29.83 30.57 33.76 33.54 32.16 32.08 33.11 31.21 32.58 28.70 31.26 31.64
51.52 51.58 51.88 51.15 50.34 50.14 43.74 37.28 36.59 38.10 35.66 36.94 35.36 33.05 32.77 33.65 34.61 35.35 34.91 34.61 36.31 36.38 32.00 32.72 30.40 32.63 32.20 31.32 34.06 29.25 33.45 27.39 28.91 27.82 33.07 32.77 30.53 32.71 33.32 33.98 33.41 33.56 34.08 34.50
51.95 51.36 51.50 50.70 49.11 48.86 42.24 41.36 41.84 37.67 34.60 34.55 33.29 31.72 33.95 35.13 36.48 36.86 37.87 36.58 35.60 34.78 35.35 37.28 37.74 37.23 36.63 35.12 31.84 31.66 31.31 29.01 28.09 21.77 31.08 30.10 25.37 31.58 32.77 33.85 35.01 35.28 31.36 35.38
51.44 50.98 50.90 49.93 48.61 48.11 43.39 39.50 38.22 35.47 31.10 32.95 33.59 34.67 36.07 35.53 35.84 34.40 37.24 37.90 35.74 37.26 41.00 40.60 39.36 38.20 37.44 36.90 35.16 36.20 31.45 31.04 30.57 23.17 28.02 17.55 29.91 36.87 37.27 34.96 35.84 37.06 37.46 38.50
50.82 50.16 50.09 50.27 49.77 48.57 42.99 41.18 37.66 35.09 31.84 34.38 32.82 33.81 33.71 34.84 34.61 34.30 36.25 37.25 37.52 40.04 37.62 33.40 31.03 31.30 32.30 34.96 35.91 34.35 35.42 32.03 26.38 22.50 20.29 27.29 31.67 35.02 34.87 33.37 32.76 38.33 37.64 38.51
51.13 50.55 49.57 49.79 49.17 48.17 45.75 40.83 40.87 37.30 32.30 30.49 34.80 32.71 33.05 30.68 31.24 31.35 35.25 38.18 39.15 38.70 35.85 32.78 25.96 23.60 26.65 27.28 30.76 36.09 35.70 34.61 28.15 26.44 21.97 20.50 31.14 36.77 38.57 37.96 26.85 37.90 39.82 38.17
49.94 50.88 50.05 49.84 48.97 49.01 46.26 41.92 41.82 38.78 32.53 32.26 33.00 31.04 30.68 34.55 33.04 31.80 33.06 34.47 34.98 37.78 33.51 29.98 26.74 25.70 29.66 24.57 24.05 27.45 29.33 29.39 25.77 26.09 22.79 27.25 35.06 37.55 38.55 26.40 30.61 38.47 39.57 40.01
49.12 49.81 50.55 50.41 49.36 48.82 45.84 41.54 41.98 39.17 33.97 33.35 34.76 35.68 31.87 32.51 32.43 29.81 33.67 33.07 33.85 33.00 30.86 29.31 28.92 26.55 28.72 26.42 29.51 27.40 27.09 24.35 24.58 26.25 22.62 19.79 37.99 36.60 31.66 35.72 38.74 39.39 38.53 39.76
48.33 49.29 49.87 50.90 49.96 48.63 46.32 41.32 41.53 41.48 37.16 34.81 37.38 37.21 37.11 36.22 35.01 32.05 34.76 34.01 34.35 35.79 32.60 32.21 30.75 27.97 28.36 27.77 23.67 30.72 25.17 29.83 27.85 28.66 28.57 36.87 38.18 38.35 40.43 40.84 39.32 38.99 39.17 39.69
47.73 48.45 49.70 50.40 50.05 49.15 46.15 41.43 41.04 40.28 35.93 34.20 33.23 32.96 36.75 39.07 38.36 38.66 31.97 35.34 37.23 36.37 35.85 32.66 32.20 28.00 30.00 24.45 26.57 27.12 31.36 33.55 29.07 30.65 33.10 36.00 38.50 40.20 41.31 41.62 41.04 41.70 41.93 42.17
47.29 47.99 48.76 49.80 49.75 50.12 45.15 41.64 41.47 39.55 36.27 30.05 30.74 37.95 34.91 38.80 38.77 37.98 37.71 35.94 37.73 36.86 35.68 33.20 32.31 29.98 32.97 28.44 29.52 28.64 31.18 32.16 31.01 31.06 33.75 35.25 38.97 39.78 40.85 41.48 42.31 42.19 42.41 42.14
47.04 47.50 48.28 49.09 50.34 50.16 45.43 42.33 42.58 41.67 35.58 30.83 31.02 34.87 36.32 37.58 36.73 36.68 37.34 36.24 35.11 34.10 32.26 31.40 30.94 33.36 31.91 32.37 30.69 28.47 33.23 31.53 29.40 28.75 35.33 35.18 36.46 39.62 41.49 40.92 40.79 41.89 41.31 40.46
46.94 47.43 48.63 50.77 50.29 46.95 41.33 36.58 41.88 42.08 40.35 34.04 29.70 33.74 33.57 34.23 35.80 35.42 35.27 35.83 34.38 33.25 32.33 32.04 33.29 34.76 32.39 28.29 27.10 34.05 35.09 36.13 37.20 34.74 37.53 38.24 39.63 40.32 41.44 40.96 41.35 41.49 40.77 40.63
46.90 47.29 48.80 50.04 48.04 43.00 37.80 37.78 40.40 44.02 40.67 33.84 30.03 28.49 33.32 35.24 34.86 34.37 33.27 33.79 33.19 32.09 32.29 31.25 31.24 31.53 32.80 30.14 26.58 33.92 35.50 36.43 36.61 37.94 38.56 37.11 38.67 37.48 40.32 40.76 40.81 42.03 40.23 39.67
46.78 47.17 48.35 49.13 46.43 44.44 40.36 42.45 43.78 42.88 37.30 34.47 27.15 27.86 28.23 35.10 30.98 29.86 34.20 31.28 31.62 32.24 30.76 30.11 28.35 30.83 31.21 27.28 32.62 33.49 35.13 35.94 35.96 37.42 37.71 37.85 39.04 39.22 38.94 39.55 39.30 38.20 37.72 37.43
47.06 47.87 47.10 44.19 41.12 37.93 38.92 44.03 42.58 42.07 37.91 31.36 28.80 25.12 23.40 33.93 31.84 32.75 31.44 31.80 26.91 32.16 28.28 28.53 29.73 27.75 25.95 29.61 31.55 32.94 33.71 34.09 34.54 36.95 37.20 37.94 37.60 37.21 37.57 37.62 37.41 36.86 36.24 35.74
47.55 45.22 40.95 34.63 38.52 43.79 43.35 38.23 35.78 35.24 34.55 34.45 28.93 30.78 25.10 30.11 30.43 29.81 30.50 29.74 27.33 20.73 28.82 29.87 26.64 26.69 32.60 33.26 34.37 34.02 34.99 35.92 36.97 34.32 33.07 35.24 35.11 35.89 35.66 35.54 35.56 35.20 33.88 31.84
42.26 37.53 36.01 39.57 43.44 39.24 36.48 32.50 31.45 32.01 29.10 31.61 30.35 29.14 25.03 30.37 28.65 29.67 31.57 27.90 25.75 18.78 26.32 23.09 23.95 25.00 28.49 33.52 34.92 34.91 35.92 37.38 38.12 37.12 36.94 37.33 37.32 35.84 34.40 34.19 33.76 32.01 30.64 28.87
41.48 39.28 40.53 39.69 35.78 32.67 30.55 29.50 30.08 30.29 25.94 29.69 27.46 26.79 28.99 28.56 32.53 31.52 30.16 27.37 25.33 17.00 28.22 20.60 19.74 28.50 31.35 32.43 31.98 33.24 36.09 36.95 37.01 36.91 35.78 35.92 35.93 35.31 34.40 32.38 30.04 29.10 29.02 29.04
40.91 36.49 32.63 31.97 31.60 25.73 25.72 22.91 26.45 23.24 28.49 27.71 26.32 23.70 27.70 28.07 30.07 30.48 27.95 24.17 22.64 26.85 22.50 21.39 24.92 30.80 30.00 30.36 31.39 32.90 35.87 36.61 36.22 35.03 34.57 33.94 31.86 31.19 30.39 28.14 28.04 27.92 27.46 28.21
34.52 31.27 26.85 26.88 24.69 27.04 27.06 27.63 26.78 29.89 28.91 29.32 28.50 23.70 25.50 28.45 25.15 27.77 22.80 27.25 25.61 15.45 16.32 19.06 27.24 31.55 29.82 30.42 32.16 33.72 32.86 33.26 31.99 30.82 29.83 28.24 28.00 26.59 27.26 26.84 27.25 26.93 26.28 26.13
31.80 31.26 25.37 27.46 29.24 29.56 30.77 30.15 28.62 28.59 32.07 30.74 25.97 24.14 26.04 24.65 20.10 24.95 24.00 19.69 15.30 19.31 20.16 25.94 29.11 31.03 31.06 29.42 31.19 32.00 30.63 29.73 27.79 26.75 26.08 25.28 24.98 24.51 23.72 24.79 25.54 25.73 25.61 25.62
32.08 31.29 28.90 31.13 29.01 27.16 27.05 25.47 25.78 29.31 31.41 28.81 28.33 21.65 17.93 18.61 20.72 17.57 17.68 14.80 15.28 20.13 25.63 28.76 27.71 29.22 30.06 30.09 30.92 30.62 29.55 27.80 26.23 25.15 25.00 25.33 25.04 24.39 22.83 22.67 21.34 21.68 22.10 21.05
30.34 30.01 32.87 28.82 28.55 28.49 27.82 28.20 28.21 33.38 30.62 23.71 25.33 22.36 19.48 21.99 16.88 15.96 21.00 18.13 25.73 30.49 29.33 28.44 29.23 30.22 30.96 32.09 30.58 28.47 26.69 25.11 24.23 24.39 24.78 24.94 25.74 25.34 23.43 21.35 22.87 22.17 20.67 17.58

GFSNW_sfc_wetblb_129.txt.gz
Wetbulb
53.25 53.43 52.63 52.24 51.51 51.83 47.05 40.18 28.70 41.95 45.68 31.20 30.71 25.88 32.86 39.75 38.00 39.65 36.94 35.55 33.43 30.56 30.03 23.54 19.54 20.05 23.92 34.56 32.75 28.01 32.03 25.57 20.91 26.17 35.58 37.31 34.13 33.89 34.44 28.61 25.83 27.30 26.91 26.29
52.27 52.19 52.22 52.33 51.79 50.51 40.72 35.10 34.17 42.76 42.62 23.89 26.03 32.32 35.24 36.75 36.79 35.36 34.66 34.33 35.35 34.72 30.60 24.66 26.94 28.01 34.11 35.00 32.21 28.77 30.16 24.00 19.20 21.81 28.18 34.18 34.29 34.30 34.33 33.84 32.90 27.43 24.09 26.94
52.75 52.80 52.60 52.46 52.29 50.38 41.11 37.24 31.44 33.74 36.16 33.79 28.26 29.03 30.76 31.38 37.54 36.54 37.32 35.27 35.98 33.45 30.96 31.53 27.77 28.56 33.73 35.10 34.35 38.08 33.26 26.53 25.32 20.78 28.03 32.89 29.87 32.31 34.05 32.58 28.33 28.45 29.11 30.39
51.75 52.11 52.18 51.86 51.32 50.83 40.76 34.92 30.32 34.42 25.81 30.08 31.42 31.46 31.97 30.85 31.12 35.83 36.72 33.85 34.41 32.59 28.26 29.95 29.05 31.35 31.19 33.52 36.39 33.35 30.32 25.15 27.03 29.28 32.40 32.14 30.61 31.83 32.73 31.59 32.46 28.63 30.81 31.24
52.19 51.97 51.80 51.32 50.43 50.63 37.38 31.82 31.42 32.66 30.09 32.65 30.92 31.32 30.48 30.94 32.46 33.24 32.71 32.23 34.42 33.78 29.13 29.73 27.97 30.40 29.61 29.37 32.26 25.77 31.16 25.87 28.08 26.96 31.53 31.24 28.61 32.12 32.30 33.23 33.39 34.54 33.92 33.25
52.38 51.67 51.35 50.48 50.53 46.19 35.06 34.53 35.16 33.53 31.46 29.85 28.04 26.88 30.51 32.94 34.06 34.65 35.95 34.36 32.75 32.46 33.51 34.77 34.73 35.07 34.27 33.68 30.40 29.58 28.77 25.88 26.03 18.30 29.46 28.47 22.87 29.96 31.53 33.15 34.81 34.49 31.40 35.72
51.85 51.20 50.77 50.81 50.69 48.20 36.62 34.12 33.12 30.33 27.67 28.60 29.34 31.78 33.20 32.95 32.98 31.86 34.87 35.30 33.30 35.32 38.68 37.99 36.52 35.20 35.36 34.12 33.56 34.09 29.76 28.55 28.22 20.96 24.57 15.19 27.44 35.12 35.98 34.64 35.39 36.60 36.61 37.80
51.20 50.62 50.06 50.21 49.41 49.19 38.03 36.23 32.70 30.22 27.29 29.23 28.82 30.71 30.22 31.78 32.76 31.55 33.81 34.96 35.44 36.90 35.72 30.52 28.27 28.61 29.55 32.27 34.00 32.50 32.80 30.02 24.14 20.38 14.34 25.13 30.03 33.70 32.96 32.05 31.51 37.87 35.79 36.92
50.15 51.08 50.07 49.77 49.33 49.48 40.80 37.08 36.61 32.24 28.38 27.19 30.81 29.28 29.72 26.75 25.43 28.75 32.90 36.15 37.07 36.44 32.97 29.17 24.38 21.17 24.63 25.07 28.60 33.85 33.30 32.05 25.81 24.60 20.42 18.96 29.00 35.19 37.75 36.14 26.71 36.94 37.61 36.77
49.25 49.86 50.32 50.43 49.13 49.35 42.91 38.63 38.00 34.31 28.03 29.01 30.00 27.95 28.21 29.65 27.63 27.74 30.66 32.40 32.91 35.88 29.75 26.35 23.66 23.15 28.16 23.27 22.28 25.76 26.71 26.59 23.76 24.14 20.16 25.93 33.08 36.57 37.58 25.25 27.23 37.49 37.97 37.75
48.42 49.02 49.87 50.74 49.80 48.80 42.81 39.07 38.13 35.10 29.34 29.87 32.42 33.18 29.42 29.53 28.95 26.60 30.95 30.93 31.60 30.49 27.25 26.84 26.54 24.72 26.14 23.84 26.80 25.52 25.30 21.97 21.65 24.26 21.65 18.34 36.56 35.31 30.87 33.81 37.34 38.51 37.90 38.18
47.83 48.43 49.22 49.92 50.54 48.53 44.96 37.63 39.23 38.60 33.58 32.12 35.13 35.63 34.99 33.90 33.33 30.77 30.98 31.64 31.52 32.96 29.30 29.50 28.23 26.19 25.48 24.72 20.88 28.89 23.92 28.02 26.13 26.81 26.87 34.46 36.20 36.09 38.06 39.01 38.19 38.43 38.10 38.55
47.49 47.95 48.48 49.56 50.75 49.52 46.23 40.87 38.53 36.81 32.36 31.13 30.94 31.26 35.38 37.14 36.12 36.78 30.49 31.97 34.59 34.37 34.09 30.44 29.38 26.29 26.91 22.77 23.80 24.84 28.61 31.30 28.33 29.09 30.68 34.37 37.02 38.02 39.77 39.66 39.49 40.78 41.08 41.37
47.54 47.70 48.05 48.57 49.56 50.03 45.93 40.47 41.05 36.25 32.99 26.30 27.82 36.07 32.77 37.27 37.15 36.34 36.03 34.92 35.16 34.77 33.52 30.54 29.15 28.44 30.90 26.19 27.67 26.83 29.48 30.85 29.08 28.70 31.58 32.18 36.94 38.16 39.39 40.20 41.11 41.01 41.09 40.98
47.52 47.38 47.62 48.34 49.16 49.77 45.76 42.05 41.47 41.13 33.50 27.41 28.37 32.59 34.15 35.83 35.74 35.20 35.36 34.69 32.97 31.28 29.66 28.74 28.44 31.10 30.50 29.81 28.45 25.98 30.53 29.81 28.41 27.10 32.58 33.21 33.58 38.12 39.99 39.38 39.57 40.33 39.81 39.13
47.45 47.31 47.65 49.42 50.71 49.56 41.60 35.92 39.96 41.02 38.28 29.10 25.28 31.58 31.08 32.53 33.72 34.78 34.20 33.90 32.67 31.25 30.19 29.35 30.61 33.67 31.29 26.01 24.69 31.18 31.89 33.06 34.42 33.42 34.64 35.95 36.87 39.13 40.16 39.93 40.04 40.58 39.93 39.93
47.39 47.15 48.24 49.93 47.62 41.56 37.05 35.56 38.69 42.27 38.34 30.89 25.81 26.87 31.03 33.04 33.21 33.18 33.57 32.87 31.18 30.49 30.18 29.57 29.25 30.19 32.13 27.00 25.41 31.42 33.67 33.99 34.03 35.38 37.89 34.85 37.01 36.96 39.63 40.28 40.23 41.21 38.98 38.28
47.33 46.93 48.04 49.40 46.13 44.38 40.53 42.13 43.86 42.12 36.58 32.91 19.97 24.55 25.25 32.49 28.16 28.25 33.46 31.37 30.33 30.06 28.96 29.56 27.63 29.66 29.70 25.84 29.96 32.16 33.37 32.97 34.55 36.13 35.49 37.89 37.86 38.13 37.85 38.58 38.17 36.97 36.26 36.27
47.42 48.28 47.92 44.45 41.52 38.62 38.83 44.02 43.25 41.57 37.62 31.13 26.05 20.38 18.87 30.72 28.26 29.52 29.96 31.18 28.16 30.84 27.48 27.42 28.45 26.66 25.42 29.74 30.22 30.64 32.19 32.23 33.67 35.78 36.33 36.71 37.13 36.95 36.74 37.03 36.44 35.59 35.08 34.76
47.81 44.14 40.66 34.25 38.60 44.24 43.05 37.59 34.65 34.84 34.90 34.20 27.97 27.40 22.64 27.47 26.84 25.70 26.18 28.64 26.48 18.52 28.07 29.09 25.88 26.21 31.85 32.73 33.79 34.88 32.84 33.59 34.78 33.16 32.48 34.05 34.73 36.01 35.71 35.90 35.74 35.85 34.18 31.67
39.65 36.36 35.05 39.58 43.48 38.62 34.51 32.41 31.78 32.33 29.18 31.96 29.07 26.88 22.93 28.41 22.88 23.55 28.61 21.62 23.40 15.62 23.34 25.06 20.34 23.75 28.78 30.81 32.31 34.68 33.55 34.29 36.32 36.78 37.21 36.88 37.56 36.40 35.22 34.06 33.73 32.36 30.30 28.89
39.74 39.29 40.73 39.47 35.18 32.77 30.73 29.06 30.04 29.42 26.72 26.16 23.58 24.13 25.91 26.39 29.55 24.25 25.04 20.92 22.39 16.49 26.58 21.81 17.16 26.29 31.39 30.55 31.78 32.16 32.18 34.30 35.33 35.79 35.92 35.65 36.71 36.44 35.38 33.18 30.36 28.86 28.29 28.02
39.98 36.42 32.66 31.29 31.18 25.80 25.30 20.39 22.97 23.64 24.78 24.33 23.15 21.08 25.82 27.01 28.46 24.69 19.79 21.55 20.37 24.84 20.34 20.18 21.49 29.25 30.63 30.04 30.36 31.80 31.67 35.31 35.83 34.31 35.31 35.78 34.79 34.48 33.42 29.45 28.18 27.36 26.41 27.15
34.01 30.91 25.62 26.25 24.13 26.22 26.48 23.68 23.33 26.82 23.87 24.05 22.98 18.83 22.69 26.71 26.24 22.90 20.38 21.94 22.04 19.09 16.63 16.44 26.02 29.73 31.52 29.65 29.82 32.44 32.28 33.91 33.65 33.20 32.67 31.89 31.29 28.54 28.44 28.02 27.15 26.61 25.79 25.88
31.82 30.51 24.65 25.67 26.99 24.18 25.83 26.64 26.01 26.22 28.94 26.98 22.78 20.92 22.73 20.60 16.83 24.75 19.57 20.44 16.20 16.75 16.43 22.41 25.42 30.81 30.88 30.37 29.18 29.48 28.15 29.89 29.22 28.96 28.73 26.81 26.66 26.46 24.88 25.26 25.61 25.52 25.40 25.27
32.28 30.91 27.56 27.94 27.10 22.27 22.16 22.19 23.55 24.62 28.22 24.89 23.32 16.44 20.37 16.76 18.17 19.68 16.43 10.04 10.53 16.86 21.54 23.86 24.82 28.17 28.50 29.07 31.37 29.53 28.41 27.55 27.46 27.10 26.25 25.59 25.27 24.87 23.66 22.56 22.91 23.40 23.57 22.68
30.40 28.67 32.01 27.73 24.09 27.04 26.79 24.63 25.58 30.54 27.89 19.50 19.42 17.57 17.40 17.92 15.31 18.19 15.36 13.75 19.11 22.74 23.72 23.40 25.25 28.00 29.96 30.36 30.03 29.19 27.23 24.77 24.82 25.20 25.60 24.49 24.63 24.11 23.26 21.99 21.12 21.51 21.58 20.06

GFSNW_sfc_wetblb_132.txt.gz
Wetbulb
52.66 52.46 53.12 52.96 52.57 51.78 45.70 36.70 27.31 40.45 43.85 30.72 27.67 25.34 31.78 39.18 36.81 38.38 35.57 34.18 32.01 28.90 28.53 22.71 18.15 18.81 23.77 33.18 31.54 26.29 30.45 25.13 20.57 25.40 32.63 36.50 35.42 33.18 34.03 27.23 25.92 26.75 25.66 25.34
52.99 52.91 52.88 52.64 51.99 50.70 39.08 33.88 32.93 41.25 39.03 24.16 25.16 31.19 34.16 35.50 35.37 34.39 33.85 33.17 34.09 33.48 29.20 23.87 26.30 26.99 33.01 33.80 31.13 27.88 28.55 22.60 18.39 22.20 27.05 32.07 31.22 34.43 34.09 33.78 32.50 27.07 24.24 26.38
52.09 52.31 52.43 52.40 52.07 50.93 39.94 34.41 26.37 33.17 34.30 32.25 28.26 28.25 29.46 30.33 36.32 35.46 36.00 33.92 34.80 32.40 29.51 29.83 26.70 27.40 32.32 34.00 33.12 37.69 33.17 25.43 24.57 22.73 28.06 31.82 27.12 31.14 33.74 32.41 28.06 28.10 28.91 30.19
52.17 52.29 52.07 51.69 51.37 51.22 39.18 33.30 28.98 32.10 24.33 29.48 28.39 29.87 30.20 29.56 30.03 34.44 35.48 32.77 33.04 31.16 27.42 28.53 27.62 30.03 30.29 32.64 35.48 32.43 29.90 23.34 26.06 28.13 29.79 31.58 30.37 30.96 31.95 30.93 31.85 28.59 30.92 30.92
52.63 52.00 51.58 51.24 51.29 48.50 36.02 31.05 30.11 30.77 28.82 31.02 28.95 29.42 28.73 29.59 31.30 31.87 31.34 30.77 32.77 32.52 27.94 28.55 26.70 29.59 28.15 27.50 30.94 24.88 29.66 24.72 27.41 25.50 29.91 30.42 28.65 31.12 31.65 32.65 32.99 33.06 33.80 32.88
51.99 51.46 51.13 51.43 51.11 43.76 32.76 32.59 33.26 32.27 30.40 28.13 27.38 26.52 29.59 31.37 32.81 33.65 34.53 32.85 31.43 31.35 32.69 33.66 33.64 33.94 33.56 32.25 29.29 28.20 27.19 24.57 24.91 17.75 27.34 27.99 23.17 28.95 28.69 32.74 34.36 34.29 31.25 35.04
51.28 50.69 50.54 50.80 50.47 44.47 35.08 32.78 32.17 29.20 27.18 27.60 28.52 30.42 31.71 31.60 32.10 30.98 33.68 33.74 31.67 34.21 36.77 36.78 35.05 33.85 33.66 33.33 32.79 32.20 28.17 26.97 27.09 20.44 23.35 13.84 27.15 34.37 34.34 33.82 34.80 35.77 35.57 36.79
50.84 50.95 50.18 50.11 49.82 48.93 37.42 35.14 32.01 29.64 26.86 27.94 28.25 28.78 29.10 30.35 31.36 30.79 32.77 34.41 35.17 35.34 34.13 29.74 27.56 27.31 28.62 30.99 32.82 31.85 31.58 28.63 23.80 19.19 13.98 23.28 28.10 33.08 32.20 30.91 30.95 35.92 35.20 36.15
49.57 50.36 50.79 49.83 49.55 49.65 39.30 36.39 35.36 31.76 28.05 27.07 29.41 28.26 28.73 26.15 24.57 27.95 31.64 34.90 35.74 35.27 31.61 28.62 23.95 20.70 23.70 24.83 27.84 32.07 31.36 30.60 25.12 23.52 19.09 17.92 27.09 34.24 36.28 35.40 26.88 36.07 36.51 35.59
48.51 49.20 49.86 50.54 49.72 49.16 41.81 38.08 36.87 33.15 27.81 28.70 29.35 27.19 27.60 29.53 27.08 26.79 28.91 30.65 31.51 34.17 28.63 25.96 22.96 22.78 26.46 22.17 22.24 24.71 25.87 25.66 22.85 23.25 20.41 24.63 31.30 35.31 36.49 24.09 25.76 36.33 36.16 35.54
48.13 48.45 49.24 49.99 50.58 48.89 42.13 38.75 37.41 33.76 28.71 29.60 32.36 32.83 29.41 29.03 28.20 26.40 29.98 29.55 30.54 29.37 26.53 26.23 25.75 23.72 24.80 22.52 25.34 24.21 23.76 21.48 20.57 23.31 20.73 16.94 35.28 33.90 28.74 32.21 34.79 37.04 35.57 35.64
47.94 48.09 48.51 49.55 50.62 49.14 43.54 36.85 38.76 37.91 32.76 30.64 34.68 34.38 34.42 33.40 32.59 30.62 30.09 29.90 30.13 31.42 28.63 28.20 27.17 25.71 24.28 22.63 20.99 26.25 23.98 27.15 24.61 26.20 25.51 31.91 35.35 34.20 36.72 37.98 36.82 36.77 36.80 36.63
47.96 47.85 48.11 48.78 50.40 50.12 46.06 40.15 39.85 36.37 31.47 30.42 30.94 30.31 33.37 36.17 35.47 35.83 29.51 30.70 34.25 33.22 32.81 29.40 28.15 26.26 26.00 22.33 22.71 23.07 27.52 30.02 27.65 28.52 28.40 31.80 35.61 36.76 38.13 38.80 38.76 39.31 39.23 39.62
48.10 48.08 48.02 48.19 48.66 49.64 46.63 38.23 40.69 37.94 33.87 26.18 27.48 35.11 32.19 35.40 35.96 35.38 35.20 34.64 34.42 34.07 32.47 29.04 28.04 27.92 30.20 25.67 27.13 25.62 28.77 29.03 28.24 27.38 29.58 30.42 35.27 37.28 38.60 39.04 40.23 40.35 40.42 39.80
48.27 48.09 47.90 47.78 48.20 48.93 46.68 41.05 41.74 41.06 34.42 27.44 27.90 31.39 33.15 34.72 34.78 34.26 34.44 33.92 32.41 30.11 29.11 27.86 27.40 29.46 29.16 28.53 27.18 24.61 29.39 29.03 27.78 28.20 31.43 31.60 31.77 36.70 38.94 38.65 39.19 39.86 39.22 38.07
48.72 48.23 47.65 47.88 49.37 50.64 44.00 37.52 38.74 42.37 39.81 30.82 24.28 30.49 29.85 31.36 32.29 32.39 32.47 32.74 31.63 30.70 29.37 28.74 29.47 31.89 30.96 25.36 23.73 29.80 30.50 31.41 33.82 32.92 32.98 33.98 34.48 37.20 38.78 39.65 39.54 39.68 39.27 38.77
48.64 47.76 47.35 49.27 48.20 42.53 37.80 35.44 37.81 40.95 37.16 29.31 25.60 26.19 30.21 32.05 31.87 31.25 30.72 31.19 29.84 29.88 29.18 28.41 28.72 29.92 32.04 26.52 22.86 29.84 32.28 33.21 32.98 32.86 35.09 33.81 35.74 35.87 38.68 39.53 39.83 41.69 39.01 38.35
48.15 47.52 47.69 49.05 46.22 44.93 40.45 41.83 44.16 41.76 35.63 31.59 18.83 23.65 25.37 31.09 27.32 26.71 30.48 27.91 27.85 28.42 28.04 28.82 27.32 29.15 28.89 26.36 30.00 32.54 32.72 32.51 31.54 32.10 35.41 35.75 37.14 36.94 37.76 38.28 37.56 36.34 35.63 35.27
48.19 47.66 48.01 44.76 42.19 39.14 39.41 44.36 43.37 41.49 37.18 28.86 24.85 19.61 17.60 29.49 27.28 28.15 28.57 28.66 25.30 28.73 25.99 26.47 28.25 26.50 25.65 30.25 30.89 31.16 31.43 31.28 32.10 32.68 34.52 35.42 36.43 36.61 36.83 36.78 36.30 35.20 34.30 34.10
48.46 44.48 40.48 34.73 37.94 44.46 42.89 38.04 35.09 34.89 34.98 34.02 28.05 26.94 22.69 26.93 26.02 25.18 25.04 26.62 23.19 17.86 25.24 27.65 26.08 25.50 31.22 33.13 34.18 34.31 31.03 32.10 32.35 31.27 30.88 32.81 33.85 35.62 35.58 36.62 37.22 36.81 35.11 32.95
41.28 37.31 34.99 39.76 44.02 38.51 35.54 32.36 31.95 32.81 28.96 31.98 30.75 26.64 22.53 27.86 22.36 22.73 27.44 20.72 20.62 18.66 20.63 20.20 18.05 20.72 28.34 32.89 32.23 32.79 33.66 33.42 33.82 36.05 37.43 37.17 37.07 36.40 35.70 34.14 34.62 34.43 32.98 30.67
40.69 39.42 40.86 39.28 35.22 32.84 30.96 29.18 30.76 29.44 25.91 26.18 23.41 23.77 25.61 25.86 28.68 23.61 25.20 21.79 23.35 18.41 24.55 19.37 17.83 23.83 29.37 30.71 31.70 31.31 30.91 31.22 32.49 34.48 35.02 35.78 36.08 37.30 36.97 35.80 33.56 32.52 30.60 28.76
40.94 36.14 32.56 31.40 31.31 25.57 24.24 22.30 25.45 22.15 24.64 24.06 23.48 21.32 25.79 26.66 28.23 23.86 24.64 19.77 20.22 23.77 18.31 19.68 20.98 25.74 30.58 30.86 31.62 31.08 30.61 30.79 31.76 32.56 34.31 35.54 35.49 35.33 35.49 32.55 30.14 28.77 27.49 26.69
32.53 30.75 25.50 25.99 24.52 26.48 26.69 25.85 26.09 29.16 22.90 24.11 23.32 19.08 22.51 26.18 25.05 23.13 19.60 21.71 21.14 19.09 15.41 13.42 20.11 26.41 29.00 30.56 30.72 30.31 30.76 30.66 31.76 31.70 32.28 32.92 33.50 32.12 31.32 31.06 28.76 27.39 25.98 26.29
31.38 31.19 23.78 25.32 28.30 27.11 27.07 29.03 28.86 27.90 27.62 25.22 22.63 20.85 22.37 17.27 16.31 24.54 20.93 20.05 16.76 16.07 14.88 19.57 22.55 27.29 28.05 28.50 29.93 30.39 30.46 26.57 25.06 24.88 25.43 27.91 28.65 28.86 25.19 25.91 26.23 26.29 26.16 25.79
32.09 30.41 26.57 27.76 27.28 24.47 26.61 26.90 29.25 27.97 27.87 23.83 22.76 20.74 21.37 18.19 16.96 19.15 18.30 10.40 11.44 17.02 19.17 21.88 18.44 21.76 24.21 23.66 28.87 30.41 30.75 29.97 26.68 27.62 26.97 26.72 27.11 26.92 24.24 23.64 24.17 24.46 25.05 23.89
30.60 28.67 32.17 29.86 26.39 27.65 29.50 29.23 29.54 31.28 27.57 20.60 18.42 16.38 16.57 16.65 16.19 17.64 14.20 11.92 18.90 20.88 20.74 20.91 21.56 20.95 23.54 24.67 23.58 25.03 26.23 26.13 26.65 25.17 25.66 24.86 24.55 24.86 24.71 23.18 21.62 21.78 21.50 20.66

GFSNW_sfc_wetblb_135.txt.gz
Wetbulb
52.96 52.96 53.01 53.01 52.10 50.65 43.65 34.49 26.69 39.46 40.80 29.78 26.17 24.73 30.60 38.25 35.68 36.74 34.08 33.02 30.79 27.70 27.13 21.79 17.62 19.10 22.79 31.47 30.57 25.94 28.85 26.89 21.47 24.13 30.44 35.00 34.97 32.97 33.54 27.38 24.69 28.08 26.06 25.03
52.23 52.49 52.74 52.71 51.80 48.73 38.20 32.62 32.07 39.81 38.35 23.26 24.43 30.01 32.76 34.14 33.99 33.19 32.56 31.80 32.78 32.50 28.10 23.70 25.86 25.92 32.21 32.33 30.06 26.43 27.82 21.89 18.48 21.57 26.37 31.04 28.33 31.77 34.96 33.36 32.22 26.48 24.40 26.35
52.04 52.58 52.45 52.00 51.35 50.06 39.35 33.01 25.22 32.40 33.10 31.27 27.67 27.63 29.02 29.55 35.09 34.32 34.57 32.69 33.44 30.79 28.27 28.93 26.00 27.31 31.71 33.13 32.21 37.46 33.21 24.77 24.12 20.54 23.53 30.41 28.08 30.70 33.33 32.56 27.86 27.45 28.28 30.34
52.56 52.40 51.85 51.36 50.99 49.34 38.74 32.05 27.61 30.29 23.73 29.11 28.14 29.00 29.45 29.30 29.45 33.03 33.91 31.28 31.59 29.65 26.63 26.98 26.16 28.95 29.38 31.76 34.78 31.49 28.95 22.44 24.47 27.34 28.69 28.86 30.25 29.85 31.47 30.62 32.06 28.16 30.41 31.32
52.25 51.74 51.33 51.35 51.06 46.43 34.91 30.58 30.03 29.79 27.44 29.51 26.74 28.59 28.70 29.53 30.20 30.91 30.17 29.92 31.60 30.92 27.75 28.90 26.56 28.05 27.22 27.39 29.85 24.21 28.25 23.76 25.72 24.83 28.85 28.57 28.67 30.44 30.92 32.45 32.93 32.74 33.01 32.96
51.81 50.91 51.05 51.11 50.33 41.99 31.32 31.31 32.31 31.75 29.24 27.18 25.61 26.17 29.21 31.00 31.75 33.06 33.88 32.32 30.21 30.21 32.27 33.51 33.29 32.90 32.63 31.77 27.97 27.01 26.22 23.37 24.23 17.79 26.10 26.75 22.65 27.75 29.39 32.51 33.82 33.42 30.69 34.36
51.38 51.07 50.55 50.56 50.37 42.75 33.93 32.24 31.86 29.22 26.77 27.52 28.42 29.24 29.90 30.33 31.39 30.33 32.93 32.78 30.34 33.52 35.59 35.24 33.09 31.94 32.05 31.55 31.12 31.31 26.75 25.15 26.70 20.06 22.85 14.29 26.41 33.47 34.84 33.33 34.48 35.18 35.60 36.40
50.11 51.14 50.76 50.22 50.20 46.97 36.09 33.99 31.73 29.31 26.73 27.92 28.22 28.25 28.50 29.30 30.26 29.85 31.51 33.41 34.42 34.35 32.95 29.11 26.91 26.55 27.02 29.67 31.38 30.11 30.51 27.45 23.09 18.59 13.21 23.38 27.72 32.41 31.68 30.84 30.81 35.63 34.85 36.30
49.03 49.93 50.31 50.62 49.90 48.20 38.29 35.13 34.17 31.48 27.38 25.80 29.37 27.67 27.26 25.69 23.92 27.30 30.85 34.45 34.77 34.23 30.42 28.20 23.42 19.93 22.94 23.99 25.93 30.57 30.16 29.21 24.76 23.15 17.97 16.76 26.04 33.08 35.73 34.52 26.07 35.26 35.26 35.65
48.55 48.72 49.55 50.06 50.41 49.01 40.91 37.05 35.76 32.32 27.38 28.08 29.03 26.80 27.23 28.85 26.50 26.13 27.41 30.77 31.06 32.51 28.20 25.75 22.65 22.46 25.11 21.61 21.33 24.11 25.06 24.29 21.81 22.65 20.59 24.35 29.35 33.75 35.15 23.05 24.22 35.01 35.47 35.01
48.43 48.35 48.67 49.53 50.46 49.00 41.90 37.97 36.60 32.96 27.91 29.02 31.76 32.26 29.20 28.37 27.45 25.68 28.73 29.33 29.95 29.29 26.32 25.77 25.26 23.05 24.08 21.70 24.10 23.00 23.49 20.57 19.76 22.42 19.94 17.32 33.89 32.94 28.09 30.55 33.39 35.24 34.47 35.67
48.73 48.26 48.27 48.68 49.98 49.58 43.42 36.61 38.32 37.32 31.93 30.29 33.73 33.88 33.92 33.10 32.27 29.68 28.94 28.53 29.17 31.35 28.27 27.19 26.61 26.08 22.78 21.56 20.21 23.66 22.65 26.36 23.60 25.66 25.46 30.69 34.52 33.87 35.76 36.59 36.04 35.89 35.63 35.70
49.00 48.40 48.03 48.33 49.38 50.36 46.10 41.46 39.96 37.68 30.43 30.19 29.99 30.33 32.82 35.34 35.04 35.08 28.84 29.16 32.83 32.32 32.94 29.22 27.51 25.40 25.60 21.63 22.01 20.79 26.19 27.96 26.86 27.85 27.80 29.24 33.23 35.76 37.27 37.56 37.31 38.21 38.29 38.21
49.52 48.75 48.23 48.11 48.42 49.12 47.19 41.36 39.27 37.90 32.20 26.32 28.15 34.43 31.16 34.66 35.02 34.76 34.39 33.73 33.71 32.96 31.58 29.82 27.70 27.31 28.80 25.31 25.86 23.78 27.06 28.28 26.97 26.09 28.88 29.64 32.76 34.87 37.29 37.92 38.75 38.93 39.13 39.12
50.19 49.22 48.42 48.08 47.94 48.44 46.13 43.58 40.68 40.22 35.10 27.50 27.76 30.73 32.06 33.95 34.36 34.12 34.20 33.33 30.93 29.00 28.02 27.49 27.81 29.15 28.54 27.39 25.65 23.36 28.30 27.67 26.56 26.28 30.57 30.41 30.12 33.24 37.45 37.59 38.07 39.33 38.99 37.70
50.14 49.32 48.56 47.82 48.01 48.99 45.04 39.44 38.85 41.37 40.02 32.24 24.12 29.73 29.20 30.20 31.36 31.76 31.63 31.90 29.75 28.39 27.94 27.25 28.39 31.08 30.42 26.56 23.73 28.81 29.45 30.83 32.27 30.92 31.23 32.98 33.04 35.02 36.29 38.42 38.75 39.32 38.89 38.27
49.87 49.10 48.30 47.70 49.42 44.22 39.67 35.89 38.74 40.91 36.75 28.82 24.98 25.54 29.69 30.17 30.67 30.12 29.82 30.36 29.07 28.64 27.75 26.98 27.16 28.76 31.96 27.38 24.74 29.00 30.98 31.97 31.89 32.13 31.78 31.79 34.17 34.40 36.80 38.73 39.46 41.59 38.37 37.67
49.56 48.35 47.80 48.80 46.47 44.69 40.37 41.63 44.07 41.06 34.56 31.09 19.28 22.99 25.14 30.17 27.25 26.53 29.13 27.46 27.42 27.73 27.42 26.78 26.42 27.70 27.66 26.14 31.51 32.59 29.71 29.46 30.14 30.97 32.10 33.92 34.13 33.87 36.31 37.53 37.65 36.78 35.92 35.40
48.55 48.01 48.19 44.93 42.70 39.78 39.97 44.70 43.96 41.28 36.43 27.35 25.18 19.36 17.84 28.76 26.85 27.75 27.97 28.08 25.93 28.04 25.37 25.54 27.42 26.02 24.28 28.44 29.46 30.76 29.22 30.32 30.75 30.46 30.73 30.73 33.71 35.01 35.71 36.59 36.47 37.00 34.93 34.35
48.21 45.30 40.36 35.36 39.17 44.47 42.94 37.54 34.49 34.65 34.84 34.28 29.75 26.24 21.65 26.64 25.74 25.37 25.16 26.30 24.58 20.43 24.74 26.89 25.24 24.45 30.03 31.88 32.61 33.28 33.55 30.91 31.12 28.90 29.27 30.37 31.02 33.78 34.25 36.60 37.80 38.06 36.36 34.80
41.98 37.47 35.47 39.92 44.45 38.79 35.42 32.46 31.74 32.95 30.30 32.37 32.16 29.69 22.88 27.75 22.62 23.92 27.32 19.68 20.56 17.80 19.92 19.80 18.08 18.50 24.15 29.46 29.44 30.84 31.09 31.30 31.02 32.84 33.94 32.98 33.86 34.04 35.19 35.69 36.77 36.74 35.31 34.14
41.09 39.59 40.83 39.56 35.59 32.80 30.21 29.06 30.66 30.16 27.22 28.34 27.88 25.18 29.24 25.75 28.50 25.04 27.03 19.93 23.42 18.07 23.46 18.66 18.61 22.27 26.34 27.44 28.32 29.82 30.03 30.00 29.92 30.51 31.00 31.99 33.83 34.94 36.33 36.58 35.35 34.94 34.75 31.43
40.48 34.50 31.90 31.55 30.98 26.09 24.86 22.97 25.51 26.75 29.21 27.45 26.37 23.21 25.91 26.30 28.11 24.56 25.41 20.93 16.98 23.11 20.08 20.47 20.74 24.16 26.53 27.07 28.45 29.28 29.59 30.10 30.58 30.41 30.50 31.84 33.08 34.27 34.88 33.73 33.91 32.22 30.80 29.44
33.31 30.50 25.94 25.90 23.50 25.67 25.45 26.97 28.29 28.87 28.69 26.47 23.70 22.13 22.78 26.08 23.78 23.50 19.37 21.64 21.02 18.55 15.82 12.98 19.06 23.35 27.03 28.18 27.67 27.60 28.37 28.90 28.92 28.96 30.32 31.68 32.43 32.16 32.65 33.04 31.56 30.66 28.21 26.99
30.75 30.76 24.35 25.51 26.96 25.32 28.80 30.16 29.31 28.45 30.02 26.67 23.10 20.94 22.38 17.28 17.61 23.48 21.43 19.16 17.28 17.38 14.47 18.82 20.55 25.50 26.76 25.88 26.33 26.59 27.41 27.61 26.38 22.30 22.46 25.88 27.60 29.45 26.49 27.20 28.43 29.81 27.48 26.61
31.46 30.25 27.99 26.30 26.61 22.37 26.04 29.36 29.55 29.79 29.51 27.59 26.24 22.88 16.09 15.73 16.66 19.59 18.27 11.00 14.01 17.46 19.13 21.27 16.22 19.46 21.53 22.15 25.34 26.38 26.77 27.03 26.66 27.15 26.73 27.02 26.73 27.26 26.07 23.44 25.55 26.71 27.07 25.26
30.20 28.94 30.85 28.84 26.88 29.45 29.22 30.01 31.21 31.79 29.65 25.84 24.44 17.10 17.84 17.34 13.77 16.70 16.03 12.43 18.14 21.66 21.17 20.80 21.16 22.09 22.45 21.11 21.03 23.15 23.71 24.00 23.15 25.15 25.51 26.15 25.78 24.76 24.40 24.02 22.72 23.55 24.33 24.10

GFSNW_sfc_wetblb_138.txt.gz
Wetbulb
52.68 52.74 53.30 53.23 52.59 49.85 42.45 33.04 27.08 38.84 39.44 29.50 25.82 24.12 30.61 37.82 34.52 34.97 33.05 31.93 29.63 27.14 26.96 21.36 17.00 19.12 22.44 30.47 29.96 24.98 28.36 27.28 21.77 24.20 29.75 33.48 33.60 32.73 33.18 26.60 23.41 26.76 25.36 24.64
52.25 53.01 52.99 52.62 52.13 49.19 37.53 32.10 31.54 38.70 37.41 22.44 24.58 29.70 31.78 33.25 32.97 32.17 31.49 30.78 31.64 31.32 27.32 23.49 25.51 25.38 31.23 31.26 29.83 26.26 27.31 21.98 19.17 22.10 26.18 29.75 28.91 30.76 33.35 34.26 32.52 25.83 23.47 26.25
52.76 52.95 52.30 51.93 51.25 50.17 38.54 31.72 25.36 31.96 32.36 29.82 26.89 27.42 28.49 29.35 34.11 33.33 33.61 31.61 32.16 29.72 27.33 27.60 25.47 26.56 30.84 32.53 31.62 36.99 33.24 24.41 23.22 18.87 23.05 27.58 26.91 29.20 32.42 33.22 26.19 27.05 28.06 29.78
52.87 52.30 51.74 51.14 50.77 48.82 38.00 30.80 27.32 29.70 23.60 28.68 27.43 28.48 29.29 28.85 29.30 32.05 32.98 30.36 30.64 29.09 25.97 26.32 25.38 27.41 29.26 30.67 34.76 31.41 28.85 22.08 23.78 26.25 27.76 28.33 27.61 28.18 30.41 27.49 31.23 27.49 30.03 30.87
52.45 51.40 51.18 51.10 50.35 45.77 34.23 30.26 29.37 28.65 27.01 28.22 25.64 28.29 27.82 29.06 30.23 29.87 29.59 29.44 30.81 30.19 27.33 28.17 25.90 27.54 26.45 26.35 27.71 24.56 27.36 23.29 24.92 24.45 28.34 28.33 27.24 29.21 30.44 30.38 32.33 32.37 32.61 32.13
51.61 51.17 50.89 51.17 50.18 41.01 30.77 30.66 31.76 31.22 28.48 26.37 25.29 25.60 28.06 29.91 30.93 32.14 32.80 30.99 29.35 29.02 30.90 32.81 32.77 32.17 31.45 30.36 26.34 25.82 25.56 22.61 23.75 20.84 25.95 26.15 21.75 27.03 28.78 31.26 33.54 33.02 29.53 34.21
50.38 51.14 51.01 50.64 50.47 41.41 33.54 31.54 31.39 29.36 26.66 27.36 28.24 29.01 29.17 29.79 30.71 29.91 32.16 32.02 29.34 32.22 34.87 34.71 32.15 30.95 31.17 30.39 29.78 30.66 25.05 24.13 26.54 22.76 22.24 13.47 25.67 31.90 33.48 32.59 34.26 35.14 35.16 36.11
49.18 50.04 50.94 50.67 50.28 45.43 35.51 33.20 31.41 28.97 25.54 27.85 28.09 28.08 27.95 28.52 28.74 29.20 30.78 32.49 33.72 33.52 32.22 28.98 26.34 25.61 26.14 28.07 29.82 28.89 29.58 26.10 22.71 20.48 15.14 22.76 26.80 30.58 31.29 29.50 30.50 35.16 35.07 35.97
48.44 48.90 49.66 49.91 50.00 47.10 37.51 34.37 33.43 31.19 26.68 25.50 29.22 27.36 26.49 25.60 23.19 26.35 29.82 33.09 34.18 33.19 29.97 27.97 22.80 18.12 22.36 23.25 24.40 29.19 29.02 27.77 23.25 22.42 17.51 15.92 24.20 31.08 34.16 33.15 25.20 35.31 35.33 34.29
48.42 48.46 48.63 49.42 50.04 48.35 40.40 36.23 34.82 31.78 27.15 27.78 28.04 26.15 26.64 28.38 26.22 25.99 26.42 29.21 30.17 31.77 28.25 25.63 22.22 21.81 23.64 21.02 20.29 22.74 23.83 23.32 22.69 21.57 20.99 23.53 28.86 32.44 34.03 20.85 24.05 34.48 34.73 33.80
48.96 48.34 48.42 48.66 49.65 49.37 42.06 37.37 35.89 32.59 27.69 28.51 30.68 31.45 28.34 27.43 27.38 25.50 27.60 28.18 28.35 28.68 26.03 26.08 25.05 22.79 23.33 20.55 22.91 22.07 22.70 19.92 19.44 21.66 18.83 16.22 32.58 32.04 27.53 29.75 31.90 34.81 34.76 34.41
49.80 48.68 48.27 48.49 49.01 49.83 44.05 36.75 37.56 36.86 31.56 32.21 32.72 33.35 33.08 32.61 32.24 29.47 28.26 27.95 27.93 30.02 27.23 26.44 26.72 26.62 21.69 20.76 19.78 22.34 21.56 25.00 22.57 24.58 24.53 30.40 32.91 33.35 34.66 35.56 35.49 35.35 34.75 35.83
50.36 49.11 48.45 48.29 48.88 50.33 46.39 41.67 37.97 35.24 30.13 30.06 29.25 30.12 32.65 34.40 34.48 34.48 28.09 28.25 32.00 30.97 31.49 28.30 27.40 25.37 25.84 21.21 21.20 19.16 24.98 26.78 25.85 27.54 26.48 28.97 32.39 34.19 35.19 36.08 36.34 37.20 37.10 37.21
51.11 49.84 48.80 48.36 48.51 49.28 47.22 42.64 38.65 35.06 31.73 27.24 29.06 33.82 30.79 33.94 34.30 33.81 33.36 32.75 32.98 32.20 30.66 28.74 27.19 26.82 29.05 24.89 25.05 23.08 26.18 26.84 25.81 25.35 28.88 30.18 32.70 32.31 33.96 35.52 37.54 37.65 37.96 37.83
51.93 50.70 49.44 48.70 48.46 48.46 46.62 44.33 41.12 38.03 34.92 29.04 28.65 30.20 31.14 32.99 33.31 33.34 32.81 32.67 30.19 28.64 28.02 27.15 26.36 28.11 27.13 27.32 24.89 22.45 26.55 25.97 25.78 24.92 29.59 29.28 29.58 31.80 33.83 35.26 36.51 37.83 37.73 37.27
51.61 50.64 49.67 49.15 48.55 48.53 43.93 39.80 40.23 42.58 37.57 31.13 26.09 29.66 27.74 29.52 31.20 31.70 30.64 31.07 28.94 27.82 27.21 26.03 26.99 28.68 28.75 24.18 23.26 28.63 28.83 29.23 30.73 29.81 29.27 30.15 31.74 33.19 34.19 35.75 37.17 38.09 38.27 38.39
51.53 50.38 49.44 48.74 48.48 46.45 40.50 35.31 38.16 41.35 37.00 29.57 25.81 25.36 29.22 29.84 29.97 29.08 28.92 29.27 28.31 28.03 27.23 26.46 26.15 27.55 30.55 25.54 22.40 27.97 29.54 30.82 30.80 31.34 29.86 30.48 32.12 33.17 34.74 35.27 37.18 40.15 38.01 37.58
51.59 49.77 48.30 48.33 47.33 44.78 40.78 41.67 43.32 39.30 33.08 30.84 22.29 25.96 23.99 29.93 27.24 26.53 28.71 27.09 26.93 27.49 27.03 26.23 25.74 27.15 26.86 24.57 29.26 29.32 29.87 29.72 29.71 30.62 30.54 32.88 32.24 34.11 34.36 35.34 36.42 36.78 35.90 35.47
50.57 48.11 48.46 45.31 42.94 40.08 40.46 45.09 44.16 40.65 34.78 26.81 26.61 24.95 19.84 28.50 26.73 27.71 27.62 27.74 25.34 27.67 25.08 24.98 27.04 25.45 24.02 27.31 27.12 28.08 28.15 28.64 31.04 31.43 30.70 30.24 29.20 30.72 32.19 34.39 35.00 35.77 35.77 34.52
48.17 45.45 39.89 35.24 40.16 44.91 43.10 38.44 35.19 34.63 34.70 34.01 29.89 28.62 22.26 26.84 25.99 25.70 25.21 27.73 25.40 20.35 25.08 26.68 24.84 24.05 29.61 30.99 30.64 30.29 31.50 29.95 29.42 26.71 27.41 27.51 28.35 30.01 30.82 32.87 36.11 37.66 37.87 36.10
41.96 37.42 35.57 40.21 44.11 39.26 36.12 32.03 31.08 32.59 30.05 32.49 32.19 29.76 25.13 28.14 23.69 24.56 26.83 19.86 21.43 17.00 19.21 22.63 18.67 18.04 23.85 27.53 28.53 29.27 28.74 28.65 29.00 29.54 30.51 30.77 31.24 30.71 30.81 31.83 34.76 36.88 36.08 35.43
41.18 39.54 40.73 39.76 35.17 32.00 29.97 28.65 30.84 29.79 28.42 29.66 29.12 28.42 30.62 27.68 28.75 24.38 26.19 20.80 23.35 17.21 22.78 21.48 18.26 22.10 25.49 26.18 27.25 28.08 28.05 28.22 28.69 29.23 29.38 29.56 29.95 30.32 30.63 32.63 33.97 35.51 35.89 34.20
39.80 34.63 31.62 31.83 31.08 26.10 25.64 20.84 25.47 26.84 29.97 27.57 27.32 26.01 28.57 27.20 28.03 24.61 25.36 20.67 18.02 22.66 20.72 20.20 20.71 23.99 25.73 25.71 26.19 27.54 27.45 27.96 28.62 29.02 29.66 30.26 30.36 30.95 31.47 32.25 33.26 33.81 32.76 32.34
33.85 30.71 26.25 28.05 24.49 25.65 25.13 24.97 28.14 30.52 29.05 28.43 27.79 25.56 27.48 27.41 25.58 24.33 19.66 22.37 20.90 18.27 16.89 14.33 18.97 22.26 26.05 26.77 26.80 25.53 26.85 26.73 27.20 27.81 28.01 28.18 29.46 29.95 31.13 32.35 32.50 31.59 30.12 29.26
30.91 30.74 27.02 26.62 27.52 24.34 27.35 28.45 28.94 28.90 31.46 28.33 26.35 25.57 26.53 23.83 22.45 24.08 20.62 17.75 16.15 17.88 17.73 19.32 20.54 24.37 25.66 26.46 26.64 25.96 25.09 23.87 21.74 19.69 20.48 23.71 24.69 24.86 25.38 28.10 29.84 30.74 30.06 28.55
30.74 30.14 29.64 26.96 26.84 19.32 26.17 28.49 28.03 30.47 31.07 29.67 29.38 24.31 22.10 22.47 22.38 20.00 17.98 14.96 15.82 22.33 20.73 21.67 16.58 19.69 21.41 22.87 26.35 26.66 25.82 25.37 25.49 26.16 24.26 26.55 26.56 25.51 23.96 20.89 23.54 26.01 28.42 28.02
29.98 29.59 32.02 27.27 25.88 28.00 28.13 30.99 29.64 32.62 30.97 27.80 26.30 22.21 22.71 20.39 13.30 14.94 18.72 17.45 24.60 23.75 21.62 21.88 21.82 23.99 24.31 24.38 19.66 21.30 22.18 23.09 23.45 24.91 25.77 25.64 25.19 21.04 20.91 22.18 23.19 23.39 25.28 26.80

GFSNW_sfc_wetblb_141.txt.gz
Wetbulb
52.35 53.20 52.99 52.73 52.05 49.61 41.46 32.00 27.34 38.47 38.31 29.33 25.73 23.68 30.32 37.32 33.80 34.36 32.43 31.36 29.33 26.91 26.69 21.45 17.16 19.14 22.77 30.65 30.50 26.13 29.02 27.43 22.40 25.95 30.68 33.24 31.17 32.01 32.93 27.02 24.53 28.43 26.78 26.41
53.01 52.96 52.49 52.04 51.40 47.98 36.90 31.46 30.90 37.84 36.64 22.48 24.36 29.05 30.85 32.47 32.11 31.24 30.96 30.02 31.26 30.75 27.26 23.76 25.40 25.31 30.65 30.73 29.71 26.99 28.85 23.68 20.10 21.76 26.51 30.01 29.44 30.75 32.91 32.44 31.97 25.07 24.23 26.86
53.00 52.31 51.80 51.15 50.61 47.93 37.35 30.64 25.50 31.67 31.78 29.12 27.06 26.30 27.91 28.96 33.23 32.46 32.81 31.12 31.61 29.31 27.16 27.59 25.74 26.55 30.60 31.86 30.96 36.22 32.96 24.94 23.30 20.04 23.23 27.50 26.30 29.02 30.61 31.15 26.54 26.98 28.46 30.10
52.68 51.70 51.32 51.26 50.16 47.35 37.26 30.27 27.14 29.09 23.38 28.28 26.20 27.41 28.47 28.37 28.69 31.22 32.39 30.21 30.27 29.12 25.71 26.20 25.55 27.62 29.39 30.50 34.23 31.43 29.37 22.66 23.61 26.08 27.48 27.75 27.53 27.69 28.62 26.31 28.22 27.16 28.66 31.16
52.00 51.52 51.04 51.30 49.66 44.47 33.84 30.30 28.90 28.09 26.49 27.56 24.85 28.14 27.40 28.69 29.16 29.60 28.79 29.31 29.96 29.83 27.36 27.93 26.15 27.44 27.32 26.44 28.48 24.36 27.58 23.21 25.79 24.61 28.27 28.33 26.91 29.00 29.10 29.60 30.28 31.50 32.44 32.06
50.98 51.52 51.19 51.07 49.33 40.59 30.86 30.33 31.35 30.90 28.16 25.88 24.53 25.42 27.41 29.58 30.37 31.56 32.51 30.91 29.07 28.57 30.01 31.80 32.30 32.16 31.66 30.21 28.72 26.07 25.35 22.67 23.70 18.53 25.49 26.17 22.46 27.14 28.83 31.00 33.41 33.30 29.39 34.61
49.74 50.70 51.14 50.79 49.36 40.79 33.51 30.93 31.16 28.82 26.12 27.15 28.20 28.70 29.07 29.48 30.30 29.81 31.17 31.75 29.49 31.72 33.93 33.47 30.55 29.47 30.20 29.57 29.00 30.18 25.03 24.16 26.45 23.00 21.65 13.90 26.04 31.92 33.00 31.70 33.48 34.88 34.94 35.84
48.85 49.58 50.42 50.75 49.90 44.40 35.12 32.46 31.26 28.57 25.02 27.66 27.55 27.79 27.82 27.63 28.13 28.56 30.66 31.93 33.17 32.94 31.95 28.89 25.97 24.35 25.53 27.50 28.66 28.04 28.92 26.49 23.71 21.02 19.17 21.90 26.40 29.51 30.82 29.99 29.38 34.68 34.07 35.90
49.14 48.86 49.33 49.81 49.82 45.50 36.71 33.81 32.87 30.78 26.63 26.72 29.40 27.32 26.08 24.88 22.88 25.56 28.95 32.26 33.11 32.01 29.98 27.96 22.67 17.52 21.41 22.47 24.30 28.57 28.71 29.48 25.41 23.82 17.65 15.40 23.82 31.15 34.52 33.42 25.22 34.46 35.70 35.43
49.82 48.88 48.88 49.08 49.74 47.62 39.94 35.56 34.04 31.53 27.14 27.99 27.98 26.21 26.07 27.81 25.70 25.29 25.75 28.09 29.71 31.22 27.56 25.51 22.17 21.42 23.30 20.47 19.68 23.07 25.74 27.04 24.88 23.89 22.02 23.13 28.44 32.96 34.23 21.84 25.75 34.93 36.02 35.68
50.46 49.29 48.76 48.74 49.29 49.48 42.21 36.89 35.23 32.34 28.04 28.74 29.99 30.98 28.08 27.31 26.88 25.10 26.73 27.01 27.65 28.38 25.84 25.35 24.60 22.86 23.01 20.40 21.85 21.63 22.47 20.23 21.89 23.83 21.32 16.93 31.98 32.53 28.07 30.11 32.45 35.17 35.60 36.05
51.13 50.03 49.05 48.67 48.89 49.95 45.50 37.38 36.97 35.80 31.48 33.02 31.64 32.42 32.38 32.28 31.78 29.14 27.43 26.63 27.28 29.29 26.94 26.21 26.22 26.01 21.42 20.63 19.88 21.49 21.14 24.75 22.12 23.98 24.06 29.99 31.88 33.02 34.24 34.25 34.83 35.47 35.48 36.26
51.78 50.40 49.55 48.79 48.75 49.43 46.45 41.35 36.93 36.69 30.35 31.07 29.49 30.06 32.18 33.99 33.90 33.77 28.31 27.34 30.56 30.15 30.55 27.89 27.00 24.69 25.24 21.01 21.12 19.88 24.69 25.91 25.03 27.02 26.98 28.38 31.70 33.10 33.96 35.48 35.70 36.67 37.16 37.03
52.79 51.49 50.18 49.17 48.84 49.46 47.66 42.02 38.56 36.47 31.69 27.79 29.65 33.54 30.06 32.94 33.93 33.73 32.69 31.92 32.12 31.25 29.98 28.81 27.43 26.63 28.21 23.91 24.50 22.97 26.31 26.27 24.32 24.32 28.01 29.78 29.70 30.80 32.53 33.28 35.38 36.82 37.51 37.54
53.04 52.38 50.97 49.92 49.49 49.06 47.29 44.63 41.65 38.36 35.14 29.78 30.05 30.62 30.82 32.35 33.03 32.85 32.78 32.11 29.85 28.56 27.73 26.62 26.40 27.85 26.67 25.42 24.33 22.47 25.80 25.57 24.80 24.55 28.51 28.55 29.22 30.24 33.05 33.68 34.28 36.20 36.83 36.69
52.30 51.97 50.86 49.81 49.48 47.78 43.38 39.46 41.16 41.02 38.98 32.73 28.75 30.90 28.61 28.96 30.82 31.37 30.24 30.44 28.51 27.84 27.07 25.69 26.45 27.96 27.76 23.26 21.44 27.18 27.48 28.20 29.98 29.40 29.17 29.95 30.96 31.23 32.43 34.53 35.16 36.20 36.97 37.62
52.05 51.86 50.85 49.64 49.21 45.61 41.23 37.45 38.80 43.18 39.68 32.96 27.43 27.58 30.19 30.45 29.93 28.98 29.21 29.39 28.48 28.13 27.00 25.94 25.53 26.85 29.83 24.83 21.73 27.38 29.23 30.33 30.08 30.58 29.13 29.42 30.60 31.11 33.27 33.42 34.78 36.81 37.32 37.50
52.00 51.83 50.52 49.08 48.46 46.59 41.55 41.82 44.09 40.31 34.92 30.44 23.14 26.43 25.45 30.46 27.32 26.54 29.22 27.65 27.36 27.90 26.88 26.10 25.17 26.41 26.33 23.89 28.34 27.36 28.80 29.08 28.34 28.75 29.38 31.33 31.85 30.36 31.45 32.28 33.46 34.64 35.26 35.78
51.60 51.03 48.45 45.51 43.05 39.79 40.72 44.82 43.19 41.23 35.94 28.47 27.02 25.87 24.00 29.03 27.02 28.65 28.19 28.02 25.45 27.43 24.99 24.76 26.52 24.83 23.17 27.04 26.28 27.31 27.68 28.04 28.89 29.39 28.61 28.49 28.14 29.89 30.74 30.14 30.78 32.18 33.59 34.41
49.09 45.68 39.98 35.00 40.78 45.07 43.64 39.10 34.26 33.78 34.12 33.49 28.98 29.53 23.20 27.27 26.54 27.51 26.96 28.49 26.03 20.96 24.97 26.47 25.07 24.29 29.04 30.24 29.42 29.61 29.99 29.11 28.16 26.08 27.66 27.02 27.65 28.25 29.16 29.98 31.43 32.27 33.36 34.89
42.10 37.58 35.71 40.77 44.05 39.65 36.73 31.74 30.35 31.76 29.62 32.11 32.14 29.82 24.65 29.18 25.79 26.34 27.85 22.55 24.95 17.08 19.54 23.47 21.17 21.27 24.50 27.40 27.81 29.47 30.31 29.03 28.03 28.30 29.15 28.71 28.58 28.60 29.00 29.43 29.69 31.68 33.57 34.72
41.48 39.32 40.39 39.40 34.41 31.47 29.97 28.75 30.60 29.97 28.74 31.82 30.33 28.82 30.56 27.73 30.24 27.70 26.08 22.10 23.09 16.37 22.56 21.37 17.98 24.27 25.64 25.66 26.74 27.39 26.98 27.28 27.47 28.12 28.32 28.89 29.22 29.25 28.99 28.93 29.16 30.15 32.59 34.29
40.17 35.04 31.30 31.82 30.81 26.03 25.23 21.05 23.85 27.17 29.26 30.02 28.07 26.60 28.37 28.07 29.85 27.35 26.00 20.60 18.65 23.08 20.52 19.33 22.87 25.38 25.36 25.54 25.95 26.36 26.60 27.04 27.31 28.03 28.63 29.16 29.44 30.06 29.95 29.82 30.25 30.53 31.10 32.23
33.68 30.39 26.38 28.70 27.04 26.83 26.26 23.63 25.21 28.96 27.94 29.30 29.80 26.51 27.46 27.76 26.71 26.71 21.46 24.01 20.70 16.82 14.62 17.10 24.68 24.54 27.43 26.77 26.19 26.08 26.55 26.87 27.53 28.36 28.48 28.17 28.00 28.21 28.92 29.79 29.94 29.97 30.01 30.48
31.64 30.93 27.54 27.20 29.00 23.80 23.76 25.50 26.59 26.73 31.83 30.08 26.82 26.74 27.72 24.78 25.14 25.41 21.33 18.05 15.84 17.45 18.77 25.39 24.98 25.47 24.88 25.93 26.47 25.41 26.33 22.99 19.47 18.28 18.47 21.93 22.68 23.59 24.32 26.41 27.15 28.27 29.19 28.85
31.39 30.09 30.10 29.90 27.62 21.42 23.28 23.47 25.87 29.53 31.36 30.69 30.21 24.16 23.90 23.94 23.87 20.70 18.24 14.16 14.48 22.57 25.76 27.90 19.00 21.21 23.92 24.74 27.05 27.25 27.41 26.33 25.15 25.56 23.69 25.96 25.82 25.56 25.31 22.46 21.11 23.44 24.69 25.05
29.56 28.75 32.55 30.53 26.21 28.99 27.80 30.20 29.03 33.05 30.96 28.54 27.79 23.03 23.38 22.77 16.97 16.38 20.92 18.48 25.61 29.15 29.04 25.36 23.66 26.60 26.85 25.68 23.89 24.58 24.54 22.81 23.37 24.44 25.69 25.92 25.46 19.68 19.60 22.61 25.09 21.25 22.88 22.15

GFSNW_sfc_wetblb_144.txt.gz
Wetbulb
53.31 52.98 52.57 51.86 51.54 48.61 45.26 42.10 39.38 45.02 45.14 39.81 36.97 35.27 36.05 38.61 37.88 38.98 36.92 36.77 34.43 32.65 32.21 29.55 28.34 28.99 30.65 34.61 34.43 30.00 32.79 30.23 26.64 30.85 34.46 36.37 34.32 32.84 32.65 28.37 26.46 30.58 29.05 30.48
53.04 52.27 51.94 51.86 50.69 46.98 45.10 41.07 40.76 45.10 43.76 36.23 35.24 35.73 35.38 37.09 36.25 36.29 35.64 34.66 36.02 36.05 33.02 29.63 31.16 31.16 35.35 34.83 34.20 32.06 33.14 29.60 25.75 28.45 31.13 33.35 32.84 33.91 34.35 33.34 32.65 29.09 26.99 32.19
52.80 51.98 51.63 51.78 50.48 46.88 44.68 40.43 38.49 41.31 40.71 37.53 36.22 34.24 33.67 33.67 37.47 36.62 36.93 35.67 36.46 34.57 32.81 34.15 31.35 31.81 34.65 35.40 34.99 36.26 35.58 30.65 27.90 25.95 29.31 31.90 29.38 32.07 33.58 31.44 27.91 30.59 31.29 33.31
52.22 51.98 51.43 51.61 50.23 46.64 44.64 39.28 35.94 36.34 35.79 35.83 35.38 35.17 34.02 32.49 32.46 36.36 37.03 34.81 34.76 33.73 30.83 31.81 31.00 33.03 33.96 34.68 36.01 35.96 35.18 28.32 29.74 31.01 31.93 31.68 30.61 30.30 31.86 29.59 30.99 28.38 33.59 31.98
51.19 51.77 51.52 51.38 50.11 43.94 41.82 39.36 37.51 35.74 35.35 33.92 34.70 33.42 33.29 32.48 33.94 34.49 33.49 33.44 34.67 35.06 32.43 33.50 31.28 33.03 33.46 32.83 34.09 32.84 32.97 29.63 30.69 28.72 31.42 31.30 29.55 32.40 32.77 32.81 32.72 32.32 33.56 33.23
50.17 50.95 51.68 51.36 49.73 43.25 40.31 38.12 38.62 39.07 33.13 33.63 34.07 34.60 33.95 33.90 35.13 36.52 36.87 35.98 34.55 33.54 35.41 37.70 38.31 38.54 38.10 36.96 34.17 32.42 31.68 30.60 29.34 26.30 30.51 30.19 28.14 32.25 32.47 33.97 35.78 35.52 32.51 38.16
49.62 49.91 50.99 51.13 49.61 42.64 40.98 38.36 39.79 37.62 33.51 33.80 34.43 33.92 34.22 33.81 34.78 33.75 36.15 36.67 34.98 37.20 39.59 39.33 36.83 36.02 35.37 35.33 34.92 36.26 31.21 30.07 30.41 26.20 29.09 23.17 32.05 36.65 36.57 34.98 36.87 38.59 38.36 39.68
49.43 49.18 49.87 50.19 50.06 44.23 41.53 38.88 39.02 37.53 35.55 34.77 33.69 33.06 33.63 34.09 34.51 34.04 34.91 36.95 38.30 39.29 37.80 34.12 31.41 31.31 31.71 31.76 32.98 33.17 34.73 31.99 28.33 24.70 23.55 29.47 32.76 33.19 33.49 33.62 34.81 39.00 38.57 39.98
50.33 49.15 48.97 49.46 49.93 45.26 43.02 40.12 39.70 38.81 35.93 36.11 36.01 34.40 34.04 33.46 33.14 32.70 33.70 36.97 39.22 38.82 36.28 32.95 26.88 26.75 27.70 28.31 28.70 32.63 32.51 32.93 29.10 25.34 21.80 22.07 31.60 36.61 39.41 38.61 31.14 39.75 39.93 40.06
51.27 49.96 49.12 48.90 49.33 47.79 45.30 41.60 39.54 39.31 35.85 37.19 35.48 34.66 34.16 34.90 33.18 33.72 32.99 34.52 35.74 37.57 34.01 30.28 28.94 28.54 30.39 27.05 26.72 26.08 26.94 27.91 25.55 25.22 23.27 28.91 36.41 38.01 39.38 29.00 32.25 39.66 40.80 41.25
52.33 50.85 49.81 48.93 48.99 49.39 46.60 42.16 40.32 39.25 37.38 37.74 34.87 36.17 34.21 33.30 34.78 33.83 34.02 33.55 33.83 34.35 31.11 30.65 31.05 29.69 31.68 28.52 30.82 29.53 28.53 26.61 26.01 26.12 22.48 21.60 37.04 36.95 33.89 37.34 39.05 40.24 41.08 41.90
52.67 51.62 50.39 49.26 48.95 49.52 46.95 43.69 40.71 39.81 38.12 38.78 36.39 37.60 37.96 38.26 38.60 36.77 33.74 34.23 34.37 36.96 34.13 32.78 33.48 30.74 31.20 29.42 27.29 30.41 27.65 32.95 31.40 31.30 31.53 37.74 38.82 40.49 42.40 40.63 40.28 41.33 41.52 42.78
52.94 52.18 51.00 49.90 49.14 49.51 48.09 44.81 40.77 40.57 37.88 38.38 35.28 35.77 37.78 37.60 38.02 39.58 35.18 34.24 36.55 35.71 37.67 37.24 35.04 30.06 33.25 28.93 28.83 30.11 32.49 33.65 31.97 31.64 36.73 36.34 38.28 39.96 40.49 40.34 39.83 40.96 42.05 42.81
53.18 53.00 51.94 50.60 49.45 49.67 49.19 44.24 42.30 42.17 37.34 33.42 35.79 36.53 35.31 37.28 37.57 37.53 37.39 36.36 36.68 37.57 37.46 36.35 34.51 31.56 35.12 31.34 32.06 30.24 35.32 32.35 32.23 32.07 35.46 36.93 37.98 38.23 38.88 38.86 39.52 38.94 40.58 41.64
53.12 53.09 52.55 51.24 50.05 49.79 49.26 46.48 42.01 42.98 39.56 34.25 35.27 35.81 35.11 35.97 36.47 36.28 37.00 36.90 35.89 36.11 33.55 32.99 31.37 34.85 32.80 33.55 31.00 30.16 33.35 32.85 30.65 31.79 37.26 36.70 37.50 38.36 38.14 37.95 38.70 40.11 40.05 40.36
52.48 52.28 52.23 51.21 49.94 48.59 44.79 39.36 44.15 42.56 42.26 37.06 32.04 34.76 32.94 34.25 34.88 34.93 34.48 35.00 34.35 34.78 33.73 32.70 34.33 33.49 33.30 29.07 27.59 34.05 34.88 36.81 38.52 36.54 36.59 36.54 37.59 37.87 38.38 37.08 37.99 39.44 39.82 40.90
52.27 52.01 51.90 50.94 49.53 45.81 40.63 37.60 40.37 43.71 41.44 35.56 33.06 31.72 32.28 33.98 33.51 33.87 33.51 33.64 33.72 33.24 32.41 30.05 31.82 32.36 33.06 30.18 27.24 36.49 36.26 36.23 37.12 37.25 35.40 35.39 38.06 36.76 38.29 37.37 38.01 38.85 38.68 40.14
52.37 52.04 51.73 50.63 49.27 46.15 41.65 43.12 45.13 42.59 37.13 33.69 30.43 29.75 28.27 33.53 30.53 30.21 33.20 31.64 32.01 32.15 31.87 30.70 29.35 31.17 31.84 27.28 32.70 35.79 35.34 35.67 35.71 36.10 36.42 37.40 37.75 36.48 36.20 37.02 36.20 35.26 35.93 37.55
51.98 51.76 50.86 46.11 43.08 39.67 41.29 45.35 44.19 42.14 38.70 33.08 30.46 28.73 30.16 31.59 30.35 31.38 30.70 32.01 27.56 31.64 28.54 28.60 29.63 28.63 25.61 30.35 32.60 34.02 34.84 33.70 35.71 35.94 35.00 34.60 33.17 34.05 35.06 35.38 35.55 34.78 35.83 36.69
50.22 45.57 40.76 35.74 41.43 45.23 43.38 39.38 35.21 34.65 35.15 34.26 30.31 32.25 27.06 30.56 29.68 28.71 29.46 30.08 27.86 23.89 27.61 30.16 25.71 26.58 31.67 33.87 35.20 35.62 35.68 35.80 35.15 32.81 33.58 33.61 33.14 34.15 34.85 34.93 35.89 35.70 35.52 35.85
42.95 38.10 35.96 41.44 44.92 40.34 37.65 32.06 30.04 31.45 29.79 32.13 32.25 31.83 26.20 30.42 28.20 28.57 30.53 27.50 27.78 21.04 24.95 25.17 24.35 23.33 28.54 33.80 33.94 36.15 36.02 35.19 34.73 35.63 36.58 35.45 34.67 33.73 33.86 34.74 35.47 35.13 35.03 34.87
42.03 39.58 40.77 40.01 35.49 32.35 31.22 30.01 31.73 30.61 28.54 32.87 31.52 31.63 32.56 29.75 32.70 30.07 27.74 26.22 25.25 21.07 26.47 22.73 20.30 26.26 31.41 31.45 31.37 32.70 33.28 33.77 33.70 33.54 33.62 34.03 33.35 34.29 34.35 34.73 35.10 35.40 35.49 35.27
40.51 35.22 31.31 31.42 31.25 27.09 26.98 24.68 27.21 28.29 31.40 32.85 29.73 28.06 29.63 28.72 30.45 29.87 27.85 23.55 21.96 26.00 21.47 20.98 24.90 31.74 30.76 30.79 31.33 31.63 31.72 31.66 31.88 32.21 32.64 33.30 33.60 33.98 33.91 34.13 35.62 35.51 35.29 36.01
34.15 30.77 26.79 29.21 27.82 29.19 30.50 29.11 30.08 33.96 32.64 31.46 32.12 29.31 30.27 30.12 28.12 28.31 24.06 26.39 23.63 19.59 17.52 19.75 28.47 31.87 34.04 32.28 31.48 31.04 31.22 30.89 30.94 32.02 32.90 33.00 32.76 32.85 33.33 33.50 34.39 34.39 34.46 35.47
31.92 30.91 28.12 28.34 33.10 30.79 31.54 31.36 30.59 30.74 33.81 32.35 29.30 29.38 29.76 28.07 27.86 27.47 25.18 20.14 18.68 20.27 21.61 27.13 32.28 32.43 31.04 31.38 30.41 30.64 31.20 30.92 30.19 30.20 29.63 30.43 30.95 30.55 31.09 32.42 32.26 32.51 32.86 33.43
33.27 30.57 30.85 32.57 30.38 30.52 27.84 29.41 29.62 33.15 33.24 33.13 32.46 27.65 26.20 26.64 27.50 23.74 21.47 20.55 18.53 24.96 26.69 31.49 32.22 29.63 29.85 29.85 31.48 31.65 32.05 32.09 30.47 30.30 29.88 30.26 30.47 30.36 31.42 30.80 30.08 30.29 30.38 30.33
30.57 29.67 33.37 33.31 31.62 33.47 32.05 31.16 31.40 34.45 31.74 29.84 30.01 24.54 25.04 27.30 23.88 22.53 25.02 21.43 27.41 30.03 31.51 32.27 31.62 31.29 31.07 30.29 30.54 31.03 31.26 30.88 31.29 31.34 30.57 30.81 30.97 30.14 28.61 29.18 32.45 30.39 30.09 28.05